2016 Cux-Wetter.de -Die Nutzung der Wetterdaten nur mit ausdrcklicher Genehmigung
Wetterdaten: Donnerstag, 12.05.2016
Datum Zeit Temp. A. Feuchte A. Luftdruck Regen Wind Richtung Richtung Sonnenschein Solar Taupunkt Windchill Windben
12.05.2016 00:00 15,7 C 75 % 1007,4 hPa 0,0 l/m 7,9 km/h (2 Bft) NO 49 0 min 0 W/m 11,3 C 14,9 C 19,3 km/h (3 Bft)
12.05.2016 00:03 15,6 C 75 % 1007,4 hPa 0,0 l/m 4,2 km/h (1 Bft) N-NO 22 0 min 0 W/m 11,2 C 15,6 C 9,7 km/h (2 Bft)
12.05.2016 00:06 15,6 C 75 % 1007,5 hPa 0,0 l/m 5,2 km/h (1 Bft) N-NO 23 0 min 0 W/m 11,2 C 15,6 C 16,1 km/h (3 Bft)
12.05.2016 00:09 15,5 C 75 % 1007,5 hPa 0,0 l/m 7,1 km/h (2 Bft) NO 43 0 min 0 W/m 11,1 C 15,1 C 14,5 km/h (3 Bft)
12.05.2016 00:12 15,4 C 76 % 1007,5 hPa 0,0 l/m 6,1 km/h (2 Bft) NO 35 0 min 0 W/m 11,2 C 15,4 C 12,9 km/h (3 Bft)
12.05.2016 00:15 15,3 C 76 % 1007,5 hPa 0,0 l/m 6,2 km/h (2 Bft) O-NO 78 0 min 0 W/m 11,1 C 15,3 C 14,5 km/h (3 Bft)
12.05.2016 00:18 15,3 C 76 % 1007,5 hPa 0,0 l/m 4,9 km/h (1 Bft) N-NO 12 0 min 0 W/m 11,1 C 15,3 C 14,5 km/h (3 Bft)
12.05.2016 00:21 15,3 C 76 % 1007,5 hPa 0,0 l/m 4,8 km/h (1 Bft) O 88 0 min 0 W/m 11,1 C 15,3 C 14,5 km/h (3 Bft)
12.05.2016 00:24 15,3 C 77 % 1007,4 hPa 0,0 l/m 5,0 km/h (1 Bft) N-NO 20 0 min 0 W/m 11,3 C 15,3 C 9,7 km/h (2 Bft)
12.05.2016 00:27 15,2 C 76 % 1007,4 hPa 0,0 l/m 7,6 km/h (2 Bft) N-NW 340 0 min 0 W/m 11,0 C 14,5 C 16,1 km/h (3 Bft)
12.05.2016 00:30 15,1 C 77 % 1007,4 hPa 0,0 l/m 4,0 km/h (1 Bft) NO 34 0 min 0 W/m 11,1 C 15,1 C 9,7 km/h (2 Bft)
12.05.2016 00:33 15,1 C 77 % 1007,4 hPa 0,0 l/m 4,1 km/h (1 Bft) N-NO 27 0 min 0 W/m 11,1 C 15,1 C 11,3 km/h (2 Bft)
12.05.2016 00:36 15,1 C 77 % 1007,3 hPa 0,0 l/m 4,8 km/h (1 Bft) NO 54 0 min 0 W/m 11,1 C 15,1 C 11,3 km/h (2 Bft)
12.05.2016 00:39 15,0 C 77 % 1007,4 hPa 0,0 l/m 5,1 km/h (1 Bft) NO 45 0 min 0 W/m 11,0 C 15,0 C 11,3 km/h (2 Bft)
12.05.2016 00:42 14,9 C 78 % 1007,3 hPa 0,0 l/m 3,6 km/h (1 Bft) SO 126 0 min 0 W/m 11,1 C 14,9 C 11,3 km/h (2 Bft)
12.05.2016 00:45 14,9 C 78 % 1007,4 hPa 0,0 l/m 5,2 km/h (1 Bft) NO 40 0 min 0 W/m 11,1 C 14,9 C 17,7 km/h (3 Bft)
12.05.2016 00:48 14,8 C 78 % 1007,4 hPa 0,0 l/m 3,6 km/h (1 Bft) N-NW 337 0 min 0 W/m 11,0 C 14,8 C 6,4 km/h (2 Bft)
12.05.2016 00:51 14,8 C 79 % 1007,4 hPa 0,0 l/m 6,2 km/h (2 Bft) NO 44 0 min 0 W/m 11,2 C 14,8 C 14,5 km/h (3 Bft)
12.05.2016 00:54 14,7 C 79 % 1007,5 hPa 0,0 l/m 5,6 km/h (2 Bft) N 11 0 min 0 W/m 11,1 C 14,7 C 16,1 km/h (3 Bft)
12.05.2016 00:57 14,7 C 79 % 1007,5 hPa 0,0 l/m 6,6 km/h (2 Bft) NO 38 0 min 0 W/m 11,1 C 14,6 C 14,5 km/h (3 Bft)
12.05.2016 01:00 14,6 C 79 % 1007,5 hPa 0,0 l/m 5,5 km/h (2 Bft) NO 38 0 min 0 W/m 11,0 C 14,6 C 16,1 km/h (3 Bft)
12.05.2016 01:03 14,6 C 79 % 1007,5 hPa 0,0 l/m 5,6 km/h (2 Bft) N 355 0 min 0 W/m 11,0 C 14,6 C 11,3 km/h (2 Bft)
12.05.2016 01:06 14,5 C 80 % 1007,5 hPa 0,0 l/m 4,7 km/h (1 Bft) NO 42 0 min 0 W/m 11,1 C 14,5 C 14,5 km/h (3 Bft)
12.05.2016 01:09 14,4 C 80 % 1007,6 hPa 0,0 l/m 4,1 km/h (1 Bft) O 88 0 min 0 W/m 11,0 C 14,4 C 11,3 km/h (2 Bft)
12.05.2016 01:12 14,4 C 80 % 1007,5 hPa 0,0 l/m 5,9 km/h (2 Bft) N-NO 22 0 min 0 W/m 11,0 C 14,4 C 14,5 km/h (3 Bft)
12.05.2016 01:15 14,4 C 80 % 1007,5 hPa 0,0 l/m 6,2 km/h (2 Bft) N 355 0 min 0 W/m 11,0 C 14,4 C 14,5 km/h (3 Bft)
12.05.2016 01:18 14,4 C 80 % 1007,4 hPa 0,0 l/m 5,5 km/h (2 Bft) O-NO 59 0 min 0 W/m 11,0 C 14,4 C 16,1 km/h (3 Bft)
12.05.2016 01:21 14,3 C 80 % 1007,3 hPa 0,0 l/m 5,5 km/h (2 Bft) NO 48 0 min 0 W/m 10,9 C 14,3 C 16,1 km/h (3 Bft)
12.05.2016 01:24 14,2 C 80 % 1007,3 hPa 0,0 l/m 7,1 km/h (2 Bft) NO 39 0 min 0 W/m 10,8 C 13,8 C 20,9 km/h (4 Bft)
12.05.2016 01:27 14,2 C 80 % 1007,3 hPa 0,0 l/m 5,3 km/h (1 Bft) N-NO 23 0 min 0 W/m 10,8 C 14,2 C 14,5 km/h (3 Bft)
12.05.2016 01:30 14,2 C 80 % 1007,3 hPa 0,0 l/m 5,4 km/h (2 Bft) NO 48 0 min 0 W/m 10,8 C 14,2 C 14,5 km/h (3 Bft)
12.05.2016 01:33 14,2 C 81 % 1007,3 hPa 0,0 l/m 4,8 km/h (1 Bft) O-NO 73 0 min 0 W/m 11,0 C 14,2 C 11,3 km/h (2 Bft)
12.05.2016 01:36 14,1 C 81 % 1007,3 hPa 0,0 l/m 4,9 km/h (1 Bft) NO 35 0 min 0 W/m 10,9 C 14,1 C 16,1 km/h (3 Bft)
12.05.2016 01:39 14,1 C 81 % 1007,3 hPa 0,0 l/m 4,9 km/h (1 Bft) N 355 0 min 0 W/m 10,9 C 14,1 C 12,9 km/h (3 Bft)
12.05.2016 01:42 14,1 C 81 % 1007,3 hPa 0,0 l/m 4,3 km/h (1 Bft) N-NW 336 0 min 0 W/m 10,9 C 14,1 C 11,3 km/h (2 Bft)
12.05.2016 01:45 14,1 C 81 % 1007,2 hPa 0,0 l/m 3,4 km/h (1 Bft) O 94 0 min 0 W/m 10,9 C 14,1 C 11,3 km/h (2 Bft)
12.05.2016 01:48 14,1 C 81 % 1007,2 hPa 0,0 l/m 3,5 km/h (1 Bft) N-NO 18 0 min 0 W/m 10,9 C 14,1 C 8,0 km/h (2 Bft)
12.05.2016 01:51 14,1 C 81 % 1007,2 hPa 0,0 l/m 3,3 km/h (1 Bft) NO 53 0 min 0 W/m 10,9 C 14,1 C 9,7 km/h (2 Bft)
12.05.2016 01:54 14,0 C 81 % 1007,2 hPa 0,0 l/m 4,0 km/h (1 Bft) NO 38 0 min 0 W/m 10,8 C 14,0 C 12,9 km/h (3 Bft)
12.05.2016 01:57 13,9 C 82 % 1007,2 hPa 0,0 l/m 3,9 km/h (1 Bft) N-NO 25 0 min 0 W/m 10,9 C 13,9 C 14,5 km/h (3 Bft)
12.05.2016 02:00 13,8 C 82 % 1007,2 hPa 0,0 l/m 5,1 km/h (1 Bft) W-SW 254 0 min 0 W/m 10,8 C 13,8 C 12,9 km/h (3 Bft)
12.05.2016 02:03 13,7 C 82 % 1007,2 hPa 0,0 l/m 6,0 km/h (2 Bft) NO 43 0 min 0 W/m 10,7 C 13,7 C 12,9 km/h (3 Bft)
12.05.2016 02:06 13,6 C 82 % 1007,2 hPa 0,0 l/m 6,1 km/h (2 Bft) NO 43 0 min 0 W/m 10,6 C 13,6 C 14,5 km/h (3 Bft)
12.05.2016 02:09 13,6 C 83 % 1007,1 hPa 0,0 l/m 5,0 km/h (1 Bft) O-NO 66 0 min 0 W/m 10,8 C 13,6 C 11,3 km/h (2 Bft)
12.05.2016 02:12 13,5 C 83 % 1007,1 hPa 0,0 l/m 5,4 km/h (2 Bft) N-NO 26 0 min 0 W/m 10,7 C 13,5 C 19,3 km/h (3 Bft)
12.05.2016 02:15 13,4 C 83 % 1007,1 hPa 0,0 l/m 4,7 km/h (1 Bft) NO 40 0 min 0 W/m 10,6 C 13,4 C 9,7 km/h (2 Bft)
12.05.2016 02:18 13,4 C 83 % 1007,2 hPa 0,0 l/m 6,9 km/h (2 Bft) O 86 0 min 0 W/m 10,6 C 13,1 C 17,7 km/h (3 Bft)
12.05.2016 02:21 13,4 C 83 % 1007,2 hPa 0,0 l/m 5,2 km/h (1 Bft) NO 47 0 min 0 W/m 10,6 C 13,4 C 12,9 km/h (3 Bft)
12.05.2016 02:24 13,4 C 83 % 1007,1 hPa 0,0 l/m 4,9 km/h (1 Bft) O-NO 73 0 min 0 W/m 10,6 C 13,4 C 16,1 km/h (3 Bft)
12.05.2016 02:27 13,4 C 83 % 1007,1 hPa 0,0 l/m 5,9 km/h (2 Bft) O 92 0 min 0 W/m 10,6 C 13,4 C 16,1 km/h (3 Bft)
12.05.2016 02:30 13,4 C 83 % 1007,2 hPa 0,0 l/m 8,3 km/h (2 Bft) NO 49 0 min 0 W/m 10,6 C 12,2 C 17,7 km/h (3 Bft)
12.05.2016 02:33 13,4 C 83 % 1007,1 hPa 0,0 l/m 7,4 km/h (2 Bft) NO 50 0 min 0 W/m 10,6 C 12,8 C 17,7 km/h (3 Bft)
12.05.2016 02:36 13,4 C 83 % 1007,1 hPa 0,0 l/m 4,0 km/h (1 Bft) N-NO 29 0 min 0 W/m 10,6 C 13,4 C 16,1 km/h (3 Bft)
12.05.2016 02:39 13,4 C 83 % 1007,1 hPa 0,0 l/m 7,1 km/h (2 Bft) O-NO 58 0 min 0 W/m 10,6 C 13,0 C 17,7 km/h (3 Bft)
12.05.2016 02:42 13,4 C 83 % 1007,1 hPa 0,0 l/m 6,2 km/h (2 Bft) NO 49 0 min 0 W/m 10,6 C 13,4 C 16,1 km/h (3 Bft)
12.05.2016 02:45 13,4 C 83 % 1007,0 hPa 0,0 l/m 7,0 km/h (2 Bft) O-NO 77 0 min 0 W/m 10,6 C 13,0 C 14,5 km/h (3 Bft)
12.05.2016 02:48 13,4 C 83 % 1007,0 hPa 0,0 l/m 5,9 km/h (2 Bft) N 5 0 min 0 W/m 10,6 C 13,4 C 14,5 km/h (3 Bft)
12.05.2016 02:51 13,4 C 83 % 1006,9 hPa 0,0 l/m 5,8 km/h (2 Bft) NO 41 0 min 0 W/m 10,6 C 13,4 C 19,3 km/h (3 Bft)
12.05.2016 02:54 13,4 C 83 % 1007,0 hPa 0,0 l/m 6,0 km/h (2 Bft) O 94 0 min 0 W/m 10,6 C 13,4 C 17,7 km/h (3 Bft)
12.05.2016 02:57 13,4 C 83 % 1006,9 hPa 0,0 l/m 5,2 km/h (1 Bft) N 355 0 min 0 W/m 10,6 C 13,4 C 14,5 km/h (3 Bft)
12.05.2016 03:00 13,3 C 83 % 1006,9 hPa 0,0 l/m 4,3 km/h (1 Bft) N 10 0 min 0 W/m 10,5 C 13,3 C 9,7 km/h (2 Bft)
12.05.2016 03:03 13,3 C 83 % 1006,9 hPa 0,0 l/m 6,0 km/h (2 Bft) N-NW 347 0 min 0 W/m 10,5 C 13,3 C 17,7 km/h (3 Bft)
12.05.2016 03:06 13,2 C 83 % 1006,9 hPa 0,0 l/m 7,9 km/h (2 Bft) NO 37 0 min 0 W/m 10,4 C 12,3 C 16,1 km/h (3 Bft)
12.05.2016 03:09 13,2 C 83 % 1006,8 hPa 0,0 l/m 5,4 km/h (2 Bft) W-SW 247 0 min 0 W/m 10,4 C 13,2 C 16,1 km/h (3 Bft)
12.05.2016 03:12 13,2 C 83 % 1006,8 hPa 0,0 l/m 5,1 km/h (1 Bft) O 79 0 min 0 W/m 10,4 C 13,2 C 16,1 km/h (3 Bft)
12.05.2016 03:15 13,2 C 83 % 1006,9 hPa 0,0 l/m 4,5 km/h (1 Bft) O-NO 57 0 min 0 W/m 10,4 C 13,2 C 16,1 km/h (3 Bft)
12.05.2016 03:18 13,1 C 84 % 1006,8 hPa 0,0 l/m 5,4 km/h (2 Bft) O-NO 67 0 min 0 W/m 10,5 C 13,1 C 11,3 km/h (2 Bft)
12.05.2016 03:21 13,1 C 84 % 1006,9 hPa 0,0 l/m 4,9 km/h (1 Bft) W-NW 288 0 min 0 W/m 10,5 C 13,1 C 12,9 km/h (3 Bft)
12.05.2016 03:24 13,1 C 84 % 1006,8 hPa 0,0 l/m 6,5 km/h (2 Bft) O-SO 123 0 min 0 W/m 10,5 C 13,1 C 12,9 km/h (3 Bft)
12.05.2016 03:27 13,0 C 84 % 1006,9 hPa 0,0 l/m 5,8 km/h (2 Bft) NO 39 0 min 0 W/m 10,4 C 13,0 C 14,5 km/h (3 Bft)
12.05.2016 03:30 13,0 C 84 % 1006,8 hPa 0,0 l/m 6,3 km/h (2 Bft) N-NO 19 0 min 0 W/m 10,4 C 13,0 C 17,7 km/h (3 Bft)
12.05.2016 03:33 12,9 C 84 % 1006,7 hPa 0,0 l/m 7,0 km/h (2 Bft) O-NO 72 0 min 0 W/m 10,3 C 12,5 C 12,9 km/h (3 Bft)
12.05.2016 03:36 12,9 C 84 % 1006,7 hPa 0,0 l/m 5,2 km/h (1 Bft) N-NO 27 0 min 0 W/m 10,3 C 12,9 C 14,5 km/h (3 Bft)
12.05.2016 03:39 12,9 C 84 % 1006,7 hPa 0,0 l/m 7,5 km/h (2 Bft) O 80 0 min 0 W/m 10,3 C 12,2 C 22,5 km/h (4 Bft)
12.05.2016 03:42 12,8 C 84 % 1006,7 hPa 0,0 l/m 5,8 km/h (2 Bft) N-NO 18 0 min 0 W/m 10,2 C 12,8 C 11,3 km/h (2 Bft)
12.05.2016 03:45 12,8 C 85 % 1006,8 hPa 0,0 l/m 5,1 km/h (1 Bft) NO 55 0 min 0 W/m 10,3 C 12,8 C 9,7 km/h (2 Bft)
12.05.2016 03:48 12,8 C 84 % 1006,7 hPa 0,0 l/m 7,0 km/h (2 Bft) N 349 0 min 0 W/m 10,2 C 12,4 C 17,7 km/h (3 Bft)
12.05.2016 03:51 12,8 C 85 % 1006,8 hPa 0,0 l/m 6,9 km/h (2 Bft) O-SO 111 0 min 0 W/m 10,3 C 12,5 C 14,5 km/h (3 Bft)
12.05.2016 03:54 12,8 C 85 % 1006,7 hPa 0,0 l/m 4,3 km/h (1 Bft) O-NO 68 0 min 0 W/m 10,3 C 12,8 C 14,5 km/h (3 Bft)
12.05.2016 03:57 12,8 C 85 % 1006,7 hPa 0,0 l/m 6,2 km/h (2 Bft) S-SO 155 0 min 0 W/m 10,3 C 12,8 C 19,3 km/h (3 Bft)
12.05.2016 04:00 12,8 C 84 % 1006,7 hPa 0,0 l/m 3,8 km/h (1 Bft) O-NO 74 0 min 0 W/m 10,2 C 12,8 C 11,3 km/h (2 Bft)
12.05.2016 04:03 12,8 C 84 % 1006,7 hPa 0,0 l/m 7,1 km/h (2 Bft) O-SO 118 0 min 0 W/m 10,2 C 12,4 C 17,7 km/h (3 Bft)
12.05.2016 04:06 12,7 C 84 % 1006,7 hPa 0,0 l/m 6,3 km/h (2 Bft) NO 42 0 min 0 W/m 10,1 C 12,7 C 17,7 km/h (3 Bft)
12.05.2016 04:09 12,7 C 84 % 1006,6 hPa 0,0 l/m 6,3 km/h (2 Bft) NO 50 0 min 0 W/m 10,1 C 12,7 C 14,5 km/h (3 Bft)
12.05.2016 04:12 12,7 C 84 % 1006,6 hPa 0,0 l/m 5,2 km/h (1 Bft) SW 234 0 min 0 W/m 10,1 C 12,7 C 12,9 km/h (3 Bft)
12.05.2016 04:15 12,7 C 84 % 1006,7 hPa 0,0 l/m 7,6 km/h (2 Bft) O-SO 116 0 min 0 W/m 10,1 C 11,9 C 16,1 km/h (3 Bft)
12.05.2016 04:18 12,6 C 85 % 1006,7 hPa 0,0 l/m 5,6 km/h (2 Bft) O 95 0 min 0 W/m 10,1 C 12,6 C 12,9 km/h (3 Bft)
12.05.2016 04:21 12,6 C 85 % 1006,7 hPa 0,0 l/m 4,8 km/h (1 Bft) NO 54 0 min 0 W/m 10,1 C 12,6 C 16,1 km/h (3 Bft)
12.05.2016 04:24 12,6 C 85 % 1006,7 hPa 0,0 l/m 4,7 km/h (1 Bft) NO 45 0 min 0 W/m 10,1 C 12,6 C 11,3 km/h (2 Bft)
12.05.2016 04:27 12,6 C 85 % 1006,7 hPa 0,0 l/m 5,6 km/h (2 Bft) O-NO 69 0 min 0 W/m 10,1 C 12,6 C 19,3 km/h (3 Bft)
12.05.2016 04:30 12,5 C 85 % 1006,7 hPa 0,0 l/m 4,8 km/h (1 Bft) O-NO 67 0 min 0 W/m 10,0 C 12,5 C 19,3 km/h (3 Bft)
12.05.2016 04:45 12,4 C 85 % 1006,6 hPa 0,0 l/m 4,8 km/h (1 Bft) NO 45 0 min 0 W/m 9,9 C 12,4 C 17,7 km/h (3 Bft)
12.05.2016 05:00 12,3 C 85 % 1006,6 hPa 0,0 l/m 4,8 km/h (1 Bft) NO 45 0 min 0 W/m 9,9 C 12,3 C 17,7 km/h (3 Bft)
12.05.2016 05:15 12,3 C 86 % 1006,4 hPa 0,0 l/m 3,2 km/h (1 Bft) O 82 0 min 0 W/m 10,0 C 12,3 C 6,4 km/h (2 Bft)
12.05.2016 05:18 12,3 C 86 % 1006,4 hPa 0,0 l/m 4,9 km/h (1 Bft) O 90 0 min 0 W/m 10,0 C 12,3 C 11,3 km/h (2 Bft)
12.05.2016 05:21 12,3 C 86 % 1006,4 hPa 0,0 l/m 5,6 km/h (2 Bft) O-NO 59 0 min 0 W/m 10,0 C 12,3 C 12,9 km/h (3 Bft)
12.05.2016 05:24 12,3 C 86 % 1006,4 hPa 0,0 l/m 2,9 km/h (1 Bft) O 100 0 min 0 W/m 10,0 C 12,3 C 4,8 km/h (1 Bft)
12.05.2016 05:27 12,3 C 86 % 1006,4 hPa 0,0 l/m 6,0 km/h (2 Bft) O 86 0 min 0 W/m 10,0 C 12,3 C 11,3 km/h (2 Bft)
12.05.2016 05:30 12,2 C 86 % 1006,3 hPa 0,0 l/m 5,8 km/h (2 Bft) O-NO 63 0 min 0 W/m 9,9 C 12,2 C 16,1 km/h (3 Bft)
12.05.2016 05:33 12,2 C 86 % 1006,4 hPa 0,0 l/m 4,7 km/h (1 Bft) NO 48 0 min 0 W/m 9,9 C 12,2 C 8,0 km/h (2 Bft)
12.05.2016 05:36 12,2 C 86 % 1006,4 hPa 0,0 l/m 5,7 km/h (2 Bft) S-SO 149 0 min 5 W/m 9,9 C 12,2 C 12,9 km/h (3 Bft)
12.05.2016 05:39 12,2 C 86 % 1006,4 hPa 0,0 l/m 3,4 km/h (1 Bft) S-SW 209 0 min 5 W/m 9,9 C 12,2 C 8,0 km/h (2 Bft)
12.05.2016 05:42 12,2 C 86 % 1006,4 hPa 0,0 l/m 5,3 km/h (1 Bft) O-SO 122 0 min 7 W/m 9,9 C 12,2 C 16,1 km/h (3 Bft)
12.05.2016 05:45 12,2 C 87 % 1006,4 hPa 0,0 l/m 4,5 km/h (1 Bft) O-SO 103 0 min 9 W/m 10,1 C 12,2 C 20,9 km/h (4 Bft)
12.05.2016 05:48 12,2 C 87 % 1006,4 hPa 0,0 l/m 6,1 km/h (2 Bft) NO 42 0 min 11 W/m 10,1 C 12,2 C 12,9 km/h (3 Bft)
12.05.2016 05:51 12,3 C 87 % 1006,4 hPa 0,0 l/m 6,3 km/h (2 Bft) N-NO 27 0 min 14 W/m 10,2 C 12,3 C 12,9 km/h (3 Bft)
12.05.2016 05:54 12,2 C 87 % 1006,4 hPa 0,0 l/m 5,1 km/h (1 Bft) O 84 0 min 16 W/m 10,1 C 12,2 C 9,7 km/h (2 Bft)
12.05.2016 05:57 12,3 C 87 % 1006,3 hPa 0,0 l/m 4,1 km/h (1 Bft) N-NO 32 0 min 16 W/m 10,2 C 12,3 C 12,9 km/h (3 Bft)
12.05.2016 06:00 12,3 C 86 % 1006,4 hPa 0,0 l/m 7,1 km/h (2 Bft) O 96 0 min 14 W/m 10,0 C 11,8 C 14,5 km/h (3 Bft)
12.05.2016 06:03 12,2 C 86 % 1006,3 hPa 0,0 l/m 5,0 km/h (1 Bft) O-NO 60 0 min 12 W/m 9,9 C 12,2 C 16,1 km/h (3 Bft)
12.05.2016 06:06 12,2 C 87 % 1006,4 hPa 0,0 l/m 6,1 km/h (2 Bft) O 80 0 min 12 W/m 10,1 C 12,2 C 16,1 km/h (3 Bft)
12.05.2016 06:09 12,2 C 87 % 1006,3 hPa 0,0 l/m 3,8 km/h (1 Bft) N-NO 15 0 min 12 W/m 10,1 C 12,2 C 8,0 km/h (2 Bft)
12.05.2016 06:12 12,1 C 87 % 1006,3 hPa 0,0 l/m 5,1 km/h (1 Bft) O-NO 77 0 min 12 W/m 10,0 C 12,1 C 14,5 km/h (3 Bft)
12.05.2016 06:15 12,1 C 87 % 1006,4 hPa 0,0 l/m 5,9 km/h (2 Bft) NO 45 0 min 12 W/m 10,0 C 12,1 C 14,5 km/h (3 Bft)
12.05.2016 06:18 12,1 C 87 % 1006,3 hPa 0,0 l/m 4,5 km/h (1 Bft) SO 146 0 min 14 W/m 10,0 C 12,1 C 14,5 km/h (3 Bft)
12.05.2016 06:21 12,1 C 87 % 1006,3 hPa 0,0 l/m 5,2 km/h (1 Bft) NO 43 0 min 14 W/m 10,0 C 12,1 C 16,1 km/h (3 Bft)
12.05.2016 06:24 12,1 C 87 % 1006,2 hPa 0,0 l/m 5,6 km/h (2 Bft) O-SO 113 0 min 14 W/m 10,0 C 12,1 C 14,5 km/h (3 Bft)
12.05.2016 06:27 12,1 C 87 % 1006,3 hPa 0,0 l/m 5,3 km/h (1 Bft) O 82 0 min 14 W/m 10,0 C 12,1 C 17,7 km/h (3 Bft)
12.05.2016 06:30 12,1 C 87 % 1006,3 hPa 0,0 l/m 5,4 km/h (2 Bft) N-NW 336 0 min 14 W/m 10,0 C 12,1 C 16,1 km/h (3 Bft)
12.05.2016 06:33 12,1 C 87 % 1006,2 hPa 0,0 l/m 6,7 km/h (2 Bft) O 100 0 min 14 W/m 10,0 C 11,9 C 17,7 km/h (3 Bft)
12.05.2016 06:36 12,1 C 87 % 1006,2 hPa 0,0 l/m 5,4 km/h (2 Bft) NO 41 0 min 14 W/m 10,0 C 12,1 C 16,1 km/h (3 Bft)
12.05.2016 06:39 12,1 C 87 % 1006,2 hPa 0,0 l/m 6,0 km/h (2 Bft) O-NO 62 0 min 14 W/m 10,0 C 12,1 C 25,7 km/h (4 Bft)
12.05.2016 06:42 12,1 C 87 % 1006,3 hPa 0,0 l/m 5,8 km/h (2 Bft) S 173 0 min 16 W/m 10,0 C 12,1 C 11,3 km/h (2 Bft)
12.05.2016 06:45 12,1 C 87 % 1006,3 hPa 0,0 l/m 6,3 km/h (2 Bft) NO 34 0 min 16 W/m 10,0 C 12,1 C 16,1 km/h (3 Bft)
12.05.2016 06:48 12,1 C 87 % 1006,4 hPa 0,0 l/m 6,1 km/h (2 Bft) NO 45 0 min 16 W/m 10,0 C 12,1 C 16,1 km/h (3 Bft)
12.05.2016 06:51 12,1 C 87 % 1006,4 hPa 0,0 l/m 6,6 km/h (2 Bft) O 87 0 min 16 W/m 10,0 C 12,0 C 20,9 km/h (4 Bft)
12.05.2016 06:54 12,2 C 87 % 1006,4 hPa 0,0 l/m 3,9 km/h (1 Bft) O 82 0 min 18 W/m 10,1 C 12,2 C 9,7 km/h (2 Bft)
12.05.2016 06:57 12,2 C 87 % 1006,4 hPa 0,0 l/m 5,2 km/h (1 Bft) NO 51 0 min 18 W/m 10,1 C 12,2 C 12,9 km/h (3 Bft)
12.05.2016 07:00 12,2 C 87 % 1006,4 hPa 0,0 l/m 7,4 km/h (2 Bft) O-NO 66 0 min 18 W/m 10,1 C 11,5 C 16,1 km/h (3 Bft)
12.05.2016 07:03 12,2 C 87 % 1006,4 hPa 0,0 l/m 5,4 km/h (2 Bft) O-SO 104 0 min 18 W/m 10,1 C 12,2 C 14,5 km/h (3 Bft)
12.05.2016 07:06 12,1 C 87 % 1006,3 hPa 0,0 l/m 1,8 km/h (1 Bft) O-SO 121 0 min 18 W/m 10,0 C 12,1 C 4,8 km/h (1 Bft)
12.05.2016 07:09 12,1 C 87 % 1006,3 hPa 0,0 l/m 3,8 km/h (1 Bft) S-SW 204 0 min 18 W/m 10,0 C 12,1 C 9,7 km/h (2 Bft)
12.05.2016 07:12 12,1 C 87 % 1006,2 hPa 0,0 l/m 4,5 km/h (1 Bft) O-SO 111 0 min 18 W/m 10,0 C 12,1 C 11,3 km/h (2 Bft)
12.05.2016 07:15 12,1 C 87 % 1006,3 hPa 0,0 l/m 5,2 km/h (1 Bft) O-NO 76 0 min 18 W/m 10,0 C 12,1 C 17,7 km/h (3 Bft)
12.05.2016 07:18 12,1 C 87 % 1006,3 hPa 0,0 l/m 4,4 km/h (1 Bft) O 80 0 min 21 W/m 10,0 C 12,1 C 8,0 km/h (2 Bft)
12.05.2016 07:21 12,1 C 87 % 1006,2 hPa 0,0 l/m 5,2 km/h (1 Bft) NO 36 0 min 25 W/m 10,0 C 12,1 C 14,5 km/h (3 Bft)
12.05.2016 07:24 12,1 C 87 % 1006,2 hPa 0,0 l/m 5,4 km/h (2 Bft) N-NO 13 0 min 30 W/m 10,0 C 12,1 C 12,9 km/h (3 Bft)
12.05.2016 07:27 12,3 C 87 % 1006,2 hPa 0,0 l/m 4,4 km/h (1 Bft) O 98 0 min 37 W/m 10,2 C 12,3 C 9,7 km/h (2 Bft)
12.05.2016 07:30 12,7 C 87 % 1006,3 hPa 0,0 l/m 2,4 km/h (1 Bft) N 5 0 min 46 W/m 10,6 C 12,7 C 6,4 km/h (2 Bft)
12.05.2016 07:33 12,8 C 86 % 1006,2 hPa 0,0 l/m 5,1 km/h (1 Bft) O-SO 113 0 min 49 W/m 10,5 C 12,8 C 17,7 km/h (3 Bft)
12.05.2016 07:36 12,9 C 85 % 1006,3 hPa 0,0 l/m 5,9 km/h (2 Bft) NO 38 0 min 47 W/m 10,4 C 12,9 C 14,5 km/h (3 Bft)
12.05.2016 07:39 13,2 C 85 % 1006,3 hPa 0,0 l/m 4,3 km/h (1 Bft) SW 228 0 min 39 W/m 10,7 C 13,2 C 12,9 km/h (3 Bft)
12.05.2016 07:42 13,1 C 83 % 1006,3 hPa 0,0 l/m 6,9 km/h (2 Bft) O-SO 104 0 min 40 W/m 10,3 C 12,8 C 17,7 km/h (3 Bft)
12.05.2016 07:45 13,2 C 84 % 1006,2 hPa 0,0 l/m 4,0 km/h (1 Bft) NW 304 0 min 44 W/m 10,6 C 13,2 C 14,5 km/h (3 Bft)
12.05.2016 07:48 13,2 C 84 % 1006,3 hPa 0,0 l/m 5,5 km/h (2 Bft) SO 146 0 min 39 W/m 10,6 C 13,2 C 14,5 km/h (3 Bft)
12.05.2016 07:51 13,1 C 83 % 1006,2 hPa 0,0 l/m 6,8 km/h (2 Bft) O 81 0 min 39 W/m 10,3 C 12,9 C 16,1 km/h (3 Bft)
12.05.2016 07:54 13,1 C 83 % 1006,3 hPa 0,0 l/m 9,0 km/h (2 Bft) NO 56 0 min 46 W/m 10,3 C 11,5 C 19,3 km/h (3 Bft)
12.05.2016 07:57 13,0 C 84 % 1006,2 hPa 0,0 l/m 7,6 km/h (2 Bft) W 264 0 min 42 W/m 10,4 C 12,2 C 16,1 km/h (3 Bft)
12.05.2016 08:00 13,0 C 84 % 1006,2 hPa 0,0 l/m 5,8 km/h (2 Bft) W-NW 292 0 min 39 W/m 10,4 C 13,0 C 12,9 km/h (3 Bft)
12.05.2016 08:03 12,9 C 84 % 1006,3 hPa 0,0 l/m 4,9 km/h (1 Bft) NO 38 0 min 33 W/m 10,3 C 12,9 C 11,3 km/h (2 Bft)
12.05.2016 08:06 13,1 C 85 % 1006,2 hPa 0,0 l/m 7,8 km/h (2 Bft) O 83 0 min 37 W/m 10,6 C 12,2 C 16,1 km/h (3 Bft)
12.05.2016 08:09 13,1 C 84 % 1006,2 hPa 0,0 l/m 7,4 km/h (2 Bft) O-SO 109 0 min 35 W/m 10,5 C 12,5 C 16,1 km/h (3 Bft)
12.05.2016 08:12 13,1 C 85 % 1006,2 hPa 0,0 l/m 4,8 km/h (1 Bft) NW 307 0 min 35 W/m 10,6 C 13,1 C 11,3 km/h (2 Bft)
12.05.2016 08:15 13,2 C 85 % 1006,2 hPa 0,0 l/m 4,4 km/h (1 Bft) W 280 0 min 33 W/m 10,7 C 13,2 C 11,3 km/h (2 Bft)
12.05.2016 08:18 13,3 C 84 % 1006,2 hPa 0,0 l/m 4,5 km/h (1 Bft) W-NW 299 0 min 35 W/m 10,7 C 13,3 C 14,5 km/h (3 Bft)
12.05.2016 08:21 13,4 C 84 % 1006,2 hPa 0,0 l/m 3,3 km/h (1 Bft) S 173 0 min 35 W/m 10,8 C 13,4 C 16,1 km/h (3 Bft)
12.05.2016 08:24 13,5 C 84 % 1006,2 hPa 0,0 l/m 4,0 km/h (1 Bft) N 5 0 min 37 W/m 10,8 C 13,5 C 6,4 km/h (2 Bft)
12.05.2016 08:27 13,6 C 84 % 1006,2 hPa 0,0 l/m 5,2 km/h (1 Bft) NO 43 0 min 37 W/m 10,9 C 13,6 C 12,9 km/h (3 Bft)
12.05.2016 08:30 13,7 C 83 % 1006,1 hPa 0,0 l/m 7,8 km/h (2 Bft) S 182 0 min 37 W/m 10,9 C 12,9 C 17,7 km/h (3 Bft)
12.05.2016 08:33 13,7 C 83 % 1006,2 hPa 0,0 l/m 8,8 km/h (2 Bft) N-NO 31 0 min 39 W/m 10,9 C 12,3 C 19,3 km/h (3 Bft)
12.05.2016 08:36 13,7 C 83 % 1006,1 hPa 0,0 l/m 7,0 km/h (2 Bft) O-NO 60 0 min 39 W/m 10,9 C 13,3 C 20,9 km/h (4 Bft)
12.05.2016 08:39 13,8 C 83 % 1006,1 hPa 0,0 l/m 5,6 km/h (2 Bft) NO 48 0 min 39 W/m 11,0 C 13,8 C 14,5 km/h (3 Bft)
12.05.2016 08:42 14,0 C 83 % 1006,1 hPa 0,0 l/m 7,1 km/h (2 Bft) SO 128 0 min 40 W/m 11,2 C 13,6 C 14,5 km/h (3 Bft)
12.05.2016 08:45 14,1 C 82 % 1006,2 hPa 0,0 l/m 4,4 km/h (1 Bft) O-NO 61 0 min 40 W/m 11,1 C 14,1 C 14,5 km/h (3 Bft)
12.05.2016 08:48 14,2 C 82 % 1006,0 hPa 0,0 l/m 4,9 km/h (1 Bft) N-NO 32 0 min 42 W/m 11,2 C 14,2 C 14,5 km/h (3 Bft)
12.05.2016 08:51 14,3 C 82 % 1006,1 hPa 0,0 l/m 3,6 km/h (1 Bft) O-NO 71 0 min 42 W/m 11,3 C 14,3 C 6,4 km/h (2 Bft)
12.05.2016 08:54 14,4 C 81 % 1006,1 hPa 0,0 l/m 7,6 km/h (2 Bft) O 84 0 min 44 W/m 11,2 C 13,7 C 19,3 km/h (3 Bft)
12.05.2016 08:57 14,4 C 81 % 1006,1 hPa 0,0 l/m 5,2 km/h (1 Bft) NO 42 0 min 44 W/m 11,2 C 14,4 C 17,7 km/h (3 Bft)
12.05.2016 09:00 14,6 C 81 % 1006,1 hPa 0,0 l/m 6,1 km/h (2 Bft) O 79 0 min 46 W/m 11,4 C 14,6 C 14,5 km/h (3 Bft)
12.05.2016 09:03 14,7 C 80 % 1006,1 hPa 0,0 l/m 5,9 km/h (2 Bft) O-SO 115 0 min 46 W/m 11,3 C 14,7 C 16,1 km/h (3 Bft)
12.05.2016 09:06 14,8 C 80 % 1006,1 hPa 0,0 l/m 8,2 km/h (2 Bft) N-NO 17 0 min 47 W/m 11,4 C 13,8 C 19,3 km/h (3 Bft)
12.05.2016 09:09 14,9 C 79 % 1006,1 hPa 0,0 l/m 7,2 km/h (2 Bft) NO 47 0 min 51 W/m 11,3 C 14,4 C 17,7 km/h (3 Bft)
12.05.2016 09:12 15,2 C 79 % 1006,1 hPa 0,0 l/m 5,4 km/h (2 Bft) N-NO 17 0 min 51 W/m 11,6 C 15,2 C 12,9 km/h (3 Bft)
12.05.2016 09:15 15,6 C 78 % 1006,0 hPa 0,0 l/m 5,2 km/h (1 Bft) O-NO 74 0 min 54 W/m 11,8 C 15,6 C 12,9 km/h (3 Bft)
12.05.2016 09:18 15,7 C 77 % 1006,1 hPa 0,0 l/m 5,2 km/h (1 Bft) NO 53 0 min 54 W/m 11,7 C 15,7 C 16,1 km/h (3 Bft)
12.05.2016 09:21 15,7 C 77 % 1006,0 hPa 0,0 l/m 4,3 km/h (1 Bft) N-NO 30 0 min 56 W/m 11,7 C 15,7 C 12,9 km/h (3 Bft)
12.05.2016 09:24 15,8 C 76 % 1006,1 hPa 0,0 l/m 8,6 km/h (2 Bft) N-NO 13 0 min 56 W/m 11,6 C 14,6 C 19,3 km/h (3 Bft)
12.05.2016 09:27 15,7 C 77 % 1006,1 hPa 0,0 l/m 6,8 km/h (2 Bft) O-NO 75 0 min 56 W/m 11,7 C 15,5 C 14,5 km/h (3 Bft)
12.05.2016 09:30 15,8 C 77 % 1006,1 hPa 0,0 l/m 7,3 km/h (2 Bft) O-NO 67 0 min 56 W/m 11,8 C 15,3 C 14,5 km/h (3 Bft)
12.05.2016 09:33 15,8 C 77 % 1006,2 hPa 0,0 l/m 8,4 km/h (2 Bft) O 92 0 min 56 W/m 11,8 C 14,7 C 19,3 km/h (3 Bft)
12.05.2016 09:36 15,9 C 76 % 1006,1 hPa 0,0 l/m 6,0 km/h (2 Bft) SO 138 0 min 56 W/m 11,7 C 15,9 C 14,5 km/h (3 Bft)
12.05.2016 09:39 16,2 C 77 % 1006,1 hPa 0,0 l/m 4,1 km/h (1 Bft) O 82 0 min 56 W/m 12,2 C 16,2 C 9,7 km/h (2 Bft)
12.05.2016 09:42 16,3 C 75 % 1006,1 hPa 0,0 l/m 5,1 km/h (1 Bft) W-SW 252 0 min 58 W/m 11,9 C 16,3 C 16,1 km/h (3 Bft)
12.05.2016 09:45 16,4 C 76 % 1006,0 hPa 0,0 l/m 5,7 km/h (2 Bft) O-SO 109 0 min 60 W/m 12,2 C 16,4 C 12,9 km/h (3 Bft)
12.05.2016 09:48 16,4 C 76 % 1006,1 hPa 0,0 l/m 5,3 km/h (1 Bft) N 355 0 min 62 W/m 12,2 C 16,4 C 16,1 km/h (3 Bft)
12.05.2016 09:51 16,6 C 76 % 1006,1 hPa 0,0 l/m 3,8 km/h (1 Bft) O-NO 60 0 min 63 W/m 12,3 C 16,6 C 8,0 km/h (2 Bft)
12.05.2016 09:54 16,8 C 75 % 1006,1 hPa 0,0 l/m 6,4 km/h (2 Bft) O-NO 64 0 min 63 W/m 12,3 C 16,8 C 20,9 km/h (4 Bft)
12.05.2016 09:57 16,9 C 73 % 1006,0 hPa 0,0 l/m 5,8 km/h (2 Bft) O-NO 78 0 min 65 W/m 12,0 C 16,9 C 16,1 km/h (3 Bft)
12.05.2016 10:00 16,8 C 74 % 1006,0 hPa 0,0 l/m 4,7 km/h (1 Bft) O-NO 78 0 min 67 W/m 12,1 C 16,8 C 9,7 km/h (2 Bft)
12.05.2016 10:03 17,0 C 75 % 1006,0 hPa 0,0 l/m 5,2 km/h (1 Bft) N-NO 28 0 min 70 W/m 12,5 C 17,0 C 14,5 km/h (3 Bft)
12.05.2016 10:06 17,2 C 74 % 1006,0 hPa 0,0 l/m 3,7 km/h (1 Bft) N 10 0 min 76 W/m 12,5 C 17,2 C 9,7 km/h (2 Bft)
12.05.2016 10:09 17,3 C 72 % 1006,0 hPa 0,0 l/m 7,1 km/h (2 Bft) NO 38 0 min 79 W/m 12,2 C 17,0 C 19,3 km/h (3 Bft)
12.05.2016 10:12 17,2 C 72 % 1006,0 hPa 0,0 l/m 5,7 km/h (2 Bft) SO 131 0 min 83 W/m 12,1 C 17,2 C 14,5 km/h (3 Bft)
12.05.2016 10:15 17,3 C 73 % 1005,9 hPa 0,0 l/m 6,5 km/h (2 Bft) O 84 0 min 86 W/m 12,4 C 17,3 C 17,7 km/h (3 Bft)
12.05.2016 10:18 17,3 C 72 % 1005,9 hPa 0,0 l/m 6,7 km/h (2 Bft) NO 42 0 min 93 W/m 12,2 C 17,2 C 14,5 km/h (3 Bft)
12.05.2016 10:21 17,4 C 72 % 1006,0 hPa 0,0 l/m 8,3 km/h (2 Bft) NO 36 0 min 98 W/m 12,3 C 16,5 C 16,1 km/h (3 Bft)
12.05.2016 10:24 17,4 C 72 % 1006,0 hPa 0,0 l/m 6,9 km/h (2 Bft) O-NO 59 0 min 105 W/m 12,3 C 17,2 C 14,5 km/h (3 Bft)
12.05.2016 10:27 17,5 C 72 % 1006,0 hPa 0,0 l/m 7,3 km/h (2 Bft) O 81 0 min 113 W/m 12,4 C 17,1 C 16,1 km/h (3 Bft)
12.05.2016 10:30 17,8 C 72 % 1006,0 hPa 0,0 l/m 5,3 km/h (1 Bft) O 94 0 min 308 W/m 12,7 C 17,8 C 14,5 km/h (3 Bft)
12.05.2016 10:33 17,7 C 71 % 1005,9 hPa 0,0 l/m 7,2 km/h (2 Bft) O-SO 115 3 min 404 W/m 12,4 C 17,3 C 12,9 km/h (3 Bft)
12.05.2016 10:36 17,8 C 72 % 1005,9 hPa 0,0 l/m 7,0 km/h (2 Bft) N-NO 17 3 min 443 W/m 12,7 C 17,5 C 22,5 km/h (4 Bft)
12.05.2016 10:39 18,1 C 72 % 1005,8 hPa 0,0 l/m 7,6 km/h (2 Bft) O-NO 71 3 min 401 W/m 13,0 C 17,5 C 17,7 km/h (3 Bft)
12.05.2016 10:42 18,3 C 71 % 1005,8 hPa 0,0 l/m 6,8 km/h (2 Bft) O-NO 69 3 min 420 W/m 12,9 C 18,1 C 16,1 km/h (3 Bft)
12.05.2016 10:45 18,5 C 70 % 1005,8 hPa 0,0 l/m 4,9 km/h (1 Bft) N-NO 21 3 min 482 W/m 12,9 C 18,5 C 14,5 km/h (3 Bft)
12.05.2016 10:48 18,6 C 70 % 1005,9 hPa 0,0 l/m 6,5 km/h (2 Bft) NO 50 3 min 522 W/m 13,0 C 18,6 C 17,7 km/h (3 Bft)
12.05.2016 10:51 19,3 C 69 % 1005,9 hPa 0,0 l/m 4,3 km/h (1 Bft) O-SO 109 3 min 497 W/m 13,5 C 19,3 C 12,9 km/h (3 Bft)
12.05.2016 10:54 19,3 C 68 % 1006,0 hPa 0,0 l/m 9,1 km/h (2 Bft) SO 138 3 min 483 W/m 13,2 C 18,2 C 17,7 km/h (3 Bft)
12.05.2016 10:57 19,3 C 67 % 1005,9 hPa 0,0 l/m 6,0 km/h (2 Bft) N 5 3 min 487 W/m 13,0 C 19,3 C 16,1 km/h (3 Bft)
12.05.2016 11:00 19,2 C 67 % 1005,9 hPa 0,0 l/m 5,8 km/h (2 Bft) O-SO 110 3 min 471 W/m 12,9 C 19,2 C 12,9 km/h (3 Bft)
12.05.2016 11:03 19,5 C 67 % 1005,8 hPa 0,0 l/m 5,9 km/h (2 Bft) O-NO 74 3 min 461 W/m 13,2 C 19,5 C 14,5 km/h (3 Bft)
12.05.2016 11:06 19,9 C 66 % 1005,8 hPa 0,0 l/m 5,5 km/h (2 Bft) NO 41 3 min 485 W/m 13,4 C 19,9 C 11,3 km/h (2 Bft)
12.05.2016 11:09 19,7 C 66 % 1005,9 hPa 0,0 l/m 5,6 km/h (2 Bft) O 96 3 min 483 W/m 13,2 C 19,7 C 16,1 km/h (3 Bft)
12.05.2016 11:12 19,8 C 67 % 1005,8 hPa 0,0 l/m 5,2 km/h (1 Bft) NO 49 3 min 457 W/m 13,5 C 19,8 C 14,5 km/h (3 Bft)
12.05.2016 11:15 19,9 C 65 % 1005,8 hPa 0,0 l/m 7,8 km/h (2 Bft) W 269 3 min 436 W/m 13,1 C 19,3 C 16,1 km/h (3 Bft)
12.05.2016 11:18 19,7 C 67 % 1005,8 hPa 0,0 l/m 4,0 km/h (1 Bft) N-NO 19 3 min 417 W/m 13,4 C 19,7 C 14,5 km/h (3 Bft)
12.05.2016 11:21 20,0 C 67 % 1005,8 hPa 0,0 l/m 5,3 km/h (1 Bft) O 96 3 min 403 W/m 13,7 C 20,0 C 12,9 km/h (3 Bft)
12.05.2016 11:24 20,0 C 66 % 1005,7 hPa 0,0 l/m 4,2 km/h (1 Bft) O-SO 119 3 min 439 W/m 13,4 C 20,0 C 9,7 km/h (2 Bft)
12.05.2016 11:27 20,3 C 67 % 1005,7 hPa 0,0 l/m 4,0 km/h (1 Bft) N-NO 25 3 min 439 W/m 14,0 C 20,3 C 14,5 km/h (3 Bft)
12.05.2016 11:30 20,4 C 65 % 1005,6 hPa 0,0 l/m 6,3 km/h (2 Bft) O-NO 78 3 min 462 W/m 13,6 C 20,4 C 14,5 km/h (3 Bft)
12.05.2016 11:33 20,6 C 64 % 1005,6 hPa 0,0 l/m 5,9 km/h (2 Bft) N-NO 20 3 min 476 W/m 13,5 C 20,6 C 19,3 km/h (3 Bft)
12.05.2016 11:36 20,9 C 64 % 1005,6 hPa 0,0 l/m 7,1 km/h (2 Bft) O 92 3 min 526 W/m 13,8 C 20,6 C 14,5 km/h (3 Bft)
12.05.2016 11:39 21,3 C 63 % 1005,6 hPa 0,0 l/m 4,6 km/h (1 Bft) O-SO 109 3 min 589 W/m 14,0 C 21,3 C 11,3 km/h (2 Bft)
12.05.2016 11:42 21,3 C 62 % 1005,6 hPa 0,0 l/m 7,7 km/h (2 Bft) O-NO 61 3 min 520 W/m 13,7 C 20,8 C 17,7 km/h (3 Bft)
12.05.2016 11:45 21,7 C 60 % 1005,6 hPa 0,0 l/m 5,3 km/h (1 Bft) O-NO 62 3 min 487 W/m 13,6 C 21,7 C 19,3 km/h (3 Bft)
12.05.2016 11:48 21,7 C 59 % 1005,6 hPa 0,0 l/m 6,5 km/h (2 Bft) NO 40 3 min 464 W/m 13,3 C 21,7 C 12,9 km/h (3 Bft)
12.05.2016 11:51 21,6 C 61 % 1005,7 hPa 0,0 l/m 6,9 km/h (2 Bft) NO 36 3 min 450 W/m 13,7 C 21,4 C 12,9 km/h (3 Bft)
12.05.2016 11:54 21,6 C 60 % 1005,6 hPa 0,0 l/m 7,1 km/h (2 Bft) O 88 3 min 427 W/m 13,5 C 21,3 C 14,5 km/h (3 Bft)
12.05.2016 11:57 21,4 C 60 % 1005,6 hPa 0,0 l/m 6,8 km/h (2 Bft) O 84 3 min 471 W/m 13,3 C 21,3 C 14,5 km/h (3 Bft)
12.05.2016 12:00 21,6 C 62 % 1005,6 hPa 0,0 l/m 4,2 km/h (1 Bft) SO 125 3 min 508 W/m 14,0 C 21,6 C 9,7 km/h (2 Bft)
12.05.2016 12:03 21,7 C 61 % 1005,6 hPa 0,0 l/m 6,5 km/h (2 Bft) N-NO 28 3 min 538 W/m 13,8 C 21,7 C 14,5 km/h (3 Bft)
12.05.2016 12:06 21,8 C 60 % 1005,6 hPa 0,0 l/m 6,2 km/h (2 Bft) O 101 3 min 515 W/m 13,7 C 21,8 C 14,5 km/h (3 Bft)
12.05.2016 12:09 21,9 C 59 % 1005,5 hPa 0,0 l/m 5,4 km/h (2 Bft) O-NO 71 3 min 501 W/m 13,5 C 21,9 C 11,3 km/h (2 Bft)
12.05.2016 12:12 22,2 C 59 % 1005,6 hPa 0,0 l/m 5,5 km/h (2 Bft) N 355 3 min 512 W/m 13,8 C 22,2 C 12,9 km/h (3 Bft)
12.05.2016 12:15 22,2 C 60 % 1005,5 hPa 0,0 l/m 5,3 km/h (1 Bft) N-NO 16 3 min 536 W/m 14,1 C 22,2 C 12,9 km/h (3 Bft)
12.05.2016 12:18 22,4 C 58 % 1005,5 hPa 0,0 l/m 6,6 km/h (2 Bft) O-NO 70 3 min 582 W/m 13,7 C 22,3 C 19,3 km/h (3 Bft)
12.05.2016 12:21 22,4 C 58 % 1005,4 hPa 0,0 l/m 6,7 km/h (2 Bft) N-NO 30 3 min 636 W/m 13,7 C 22,3 C 14,5 km/h (3 Bft)
12.05.2016 12:24 22,7 C 58 % 1005,4 hPa 0,0 l/m 4,7 km/h (1 Bft) NO 44 3 min 619 W/m 14,0 C 22,7 C 11,3 km/h (2 Bft)
12.05.2016 12:27 22,9 C 58 % 1005,4 hPa 0,0 l/m 5,5 km/h (2 Bft) NO 41 3 min 603 W/m 14,2 C 22,9 C 14,5 km/h (3 Bft)
12.05.2016 12:30 22,7 C 57 % 1005,2 hPa 0,0 l/m 6,2 km/h (2 Bft) N-NO 14 3 min 619 W/m 13,7 C 22,7 C 16,1 km/h (3 Bft)
12.05.2016 12:33 22,7 C 56 % 1005,2 hPa 0,0 l/m 9,1 km/h (2 Bft) O-NO 61 3 min 671 W/m 13,5 C 21,9 C 19,3 km/h (3 Bft)
12.05.2016 12:36 22,8 C 56 % 1005,2 hPa 0,0 l/m 7,5 km/h (2 Bft) S-SO 155 3 min 671 W/m 13,6 C 22,4 C 17,7 km/h (3 Bft)
12.05.2016 12:39 22,8 C 57 % 1005,1 hPa 0,0 l/m 8,6 km/h (2 Bft) NO 39 3 min 656 W/m 13,8 C 22,1 C 17,7 km/h (3 Bft)
12.05.2016 12:42 23,3 C 55 % 1005,1 hPa 0,0 l/m 7,5 km/h (2 Bft) SO 138 3 min 638 W/m 13,7 C 23,0 C 12,9 km/h (3 Bft)
12.05.2016 12:45 23,2 C 55 % 1005,1 hPa 0,0 l/m 6,4 km/h (2 Bft) NO 44 3 min 647 W/m 13,6 C 23,2 C 12,9 km/h (3 Bft)
12.05.2016 12:48 23,3 C 55 % 1005,1 hPa 0,0 l/m 7,9 km/h (2 Bft) NO 48 3 min 640 W/m 13,7 C 22,8 C 17,7 km/h (3 Bft)
12.05.2016 12:51 23,2 C 54 % 1005,1 hPa 0,0 l/m 6,2 km/h (2 Bft) SO 126 3 min 731 W/m 13,4 C 23,2 C 14,5 km/h (3 Bft)
12.05.2016 12:54 23,4 C 55 % 1005,0 hPa 0,0 l/m 6,1 km/h (2 Bft) N-NO 26 3 min 779 W/m 13,8 C 23,4 C 12,9 km/h (3 Bft)
12.05.2016 12:57 23,6 C 56 % 1004,9 hPa 0,0 l/m 5,5 km/h (2 Bft) N-NO 23 3 min 779 W/m 14,3 C 23,6 C 12,9 km/h (3 Bft)
12.05.2016 13:00 23,7 C 56 % 1005,0 hPa 0,0 l/m 7,6 km/h (2 Bft) N 9 3 min 770 W/m 14,4 C 23,3 C 16,1 km/h (3 Bft)
12.05.2016 13:03 24,0 C 52 % 1004,9 hPa 0,0 l/m 8,0 km/h (2 Bft) NW 321 3 min 715 W/m 13,5 C 23,6 C 16,1 km/h (3 Bft)
12.05.2016 13:06 24,0 C 54 % 1005,0 hPa 0,0 l/m 9,6 km/h (2 Bft) O 81 3 min 724 W/m 14,1 C 23,2 C 17,7 km/h (3 Bft)
12.05.2016 13:09 24,0 C 52 % 1004,9 hPa 0,0 l/m 10,0 km/h (2 Bft) NO 42 3 min 721 W/m 13,5 C 23,1 C 20,9 km/h (4 Bft)
12.05.2016 13:12 23,8 C 51 % 1004,9 hPa 0,0 l/m 8,3 km/h (2 Bft) O 82 3 min 710 W/m 13,0 C 23,3 C 17,7 km/h (3 Bft)
12.05.2016 13:15 23,6 C 52 % 1004,8 hPa 0,0 l/m 7,6 km/h (2 Bft) O 82 3 min 656 W/m 13,2 C 23,2 C 19,3 km/h (3 Bft)
12.05.2016 13:18 23,8 C 52 % 1004,8 hPa 0,0 l/m 7,5 km/h (2 Bft) NW 325 3 min 675 W/m 13,3 C 23,5 C 24,1 km/h (4 Bft)
12.05.2016 13:21 24,3 C 51 % 1004,8 hPa 0,0 l/m 7,7 km/h (2 Bft) O-NO 74 3 min 689 W/m 13,5 C 23,9 C 19,3 km/h (3 Bft)
12.05.2016 13:24 24,0 C 51 % 1004,7 hPa 0,0 l/m 6,6 km/h (2 Bft) O-NO 57 3 min 712 W/m 13,2 C 24,0 C 16,1 km/h (3 Bft)
12.05.2016 13:27 24,0 C 51 % 1004,8 hPa 0,0 l/m 8,2 km/h (2 Bft) NO 43 3 min 705 W/m 13,2 C 23,5 C 20,9 km/h (4 Bft)
12.05.2016 13:30 23,8 C 51 % 1004,8 hPa 0,0 l/m 7,9 km/h (2 Bft) O-NO 75 3 min 724 W/m 13,0 C 23,4 C 19,3 km/h (3 Bft)
12.05.2016 13:33 23,9 C 51 % 1004,7 hPa 0,0 l/m 8,9 km/h (2 Bft) O-SO 108 3 min 740 W/m 13,1 C 23,2 C 22,5 km/h (4 Bft)
12.05.2016 13:36 24,0 C 51 % 1004,7 hPa 0,0 l/m 5,6 km/h (2 Bft) O-SO 111 3 min 770 W/m 13,2 C 24,0 C 14,5 km/h (3 Bft)
12.05.2016 13:39 24,7 C 48 % 1004,6 hPa 0,0 l/m 8,6 km/h (2 Bft) NW 309 3 min 803 W/m 12,9 C 24,1 C 20,9 km/h (4 Bft)
12.05.2016 13:42 24,9 C 48 % 1004,6 hPa 0,0 l/m 6,8 km/h (2 Bft) N-NO 25 3 min 793 W/m 13,1 C 24,8 C 17,7 km/h (3 Bft)
12.05.2016 13:45 25,0 C 46 % 1004,6 hPa 0,0 l/m 8,7 km/h (2 Bft) SO 145 3 min 793 W/m 12,6 C 24,4 C 24,1 km/h (4 Bft)
12.05.2016 13:48 24,9 C 47 % 1004,6 hPa 0,0 l/m 8,9 km/h (2 Bft) O 99 3 min 756 W/m 12,8 C 24,3 C 22,5 km/h (4 Bft)
12.05.2016 13:51 24,6 C 46 % 1004,5 hPa 0,0 l/m 8,3 km/h (2 Bft) NO 38 3 min 721 W/m 12,2 C 24,1 C 19,3 km/h (3 Bft)
12.05.2016 13:54 24,4 C 47 % 1004,5 hPa 0,0 l/m 9,0 km/h (2 Bft) SO 132 3 min 686 W/m 12,3 C 23,7 C 20,9 km/h (4 Bft)
12.05.2016 13:57 24,2 C 50 % 1004,5 hPa 0,0 l/m 7,0 km/h (2 Bft) N-NO 20 3 min 663 W/m 13,1 C 24,0 C 17,7 km/h (3 Bft)
12.05.2016 14:00 24,4 C 48 % 1004,4 hPa 0,0 l/m 10,4 km/h (2 Bft) NO 55 3 min 668 W/m 12,7 C 23,4 C 29,0 km/h (5 Bft)
12.05.2016 14:03 24,4 C 48 % 1004,4 hPa 0,0 l/m 5,9 km/h (2 Bft) NO 35 3 min 677 W/m 12,7 C 24,4 C 19,3 km/h (3 Bft)
12.05.2016 14:06 24,8 C 49 % 1004,5 hPa 0,0 l/m 8,2 km/h (2 Bft) W 267 3 min 679 W/m 13,3 C 24,3 C 17,7 km/h (3 Bft)
12.05.2016 14:09 24,8 C 48 % 1004,4 hPa 0,0 l/m 8,0 km/h (2 Bft) O 82 3 min 703 W/m 13,0 C 24,4 C 22,5 km/h (4 Bft)
12.05.2016 14:12 24,9 C 48 % 1004,4 hPa 0,0 l/m 9,1 km/h (2 Bft) N-NO 22 3 min 696 W/m 13,1 C 24,2 C 22,5 km/h (4 Bft)
12.05.2016 14:15 25,1 C 46 % 1004,3 hPa 0,0 l/m 7,8 km/h (2 Bft) O-NO 68 3 min 693 W/m 12,7 C 24,8 C 17,7 km/h (3 Bft)
12.05.2016 14:18 24,9 C 45 % 1004,4 hPa 0,0 l/m 9,7 km/h (2 Bft) N 9 3 min 712 W/m 12,1 C 24,1 C 20,9 km/h (4 Bft)
12.05.2016 14:21 25,1 C 46 % 1004,3 hPa 0,0 l/m 7,3 km/h (2 Bft) W-NW 282 3 min 722 W/m 12,7 C 24,9 C 19,3 km/h (3 Bft)
12.05.2016 14:24 25,2 C 45 % 1004,3 hPa 0,0 l/m 9,5 km/h (2 Bft) NW 313 3 min 738 W/m 12,4 C 24,5 C 20,9 km/h (4 Bft)
12.05.2016 14:27 24,8 C 47 % 1004,3 hPa 0,0 l/m 10,1 km/h (2 Bft) N 360 3 min 751 W/m 12,7 C 23,9 C 17,7 km/h (3 Bft)
12.05.2016 14:30 24,7 C 47 % 1004,3 hPa 0,0 l/m 8,4 km/h (2 Bft) O 99 3 min 758 W/m 12,6 C 24,2 C 22,5 km/h (4 Bft)
12.05.2016 14:33 25,0 C 47 % 1004,3 hPa 0,0 l/m 7,9 km/h (2 Bft) O-NO 61 3 min 763 W/m 12,9 C 24,6 C 14,5 km/h (3 Bft)
12.05.2016 14:36 25,2 C 47 % 1004,2 hPa 0,0 l/m 8,8 km/h (2 Bft) NO 44 3 min 759 W/m 13,1 C 24,6 C 22,5 km/h (4 Bft)
12.05.2016 14:39 25,2 C 45 % 1004,3 hPa 0,0 l/m 8,2 km/h (2 Bft) S-SW 207 3 min 759 W/m 12,4 C 24,8 C 20,9 km/h (4 Bft)
12.05.2016 14:42 24,9 C 46 % 1004,2 hPa 0,0 l/m 8,2 km/h (2 Bft) NO 37 3 min 752 W/m 12,5 C 24,4 C 14,5 km/h (3 Bft)
12.05.2016 14:45 24,8 C 46 % 1004,2 hPa 0,0 l/m 8,4 km/h (2 Bft) NO 48 3 min 752 W/m 12,4 C 24,3 C 22,5 km/h (4 Bft)
12.05.2016 14:48 25,2 C 45 % 1004,1 hPa 0,0 l/m 9,2 km/h (2 Bft) N 349 3 min 745 W/m 12,4 C 24,5 C 19,3 km/h (3 Bft)
12.05.2016 14:51 25,1 C 45 % 1004,1 hPa 0,0 l/m 10,8 km/h (2 Bft) N-NO 24 3 min 747 W/m 12,3 C 24,1 C 19,3 km/h (3 Bft)
12.05.2016 14:54 25,1 C 45 % 1004,1 hPa 0,0 l/m 9,4 km/h (2 Bft) NO 51 3 min 738 W/m 12,3 C 24,4 C 22,5 km/h (4 Bft)
12.05.2016 14:57 25,2 C 44 % 1004,1 hPa 0,0 l/m 7,7 km/h (2 Bft) NO 42 3 min 744 W/m 12,1 C 24,9 C 17,7 km/h (3 Bft)
12.05.2016 15:00 25,2 C 44 % 1004,1 hPa 0,0 l/m 10,2 km/h (2 Bft) NO 48 3 min 733 W/m 12,1 C 24,3 C 20,9 km/h (4 Bft)
12.05.2016 15:03 25,4 C 45 % 1004,1 hPa 0,0 l/m 5,6 km/h (2 Bft) NO 51 3 min 740 W/m 12,6 C 25,4 C 14,5 km/h (3 Bft)
12.05.2016 15:06 25,2 C 48 % 1004,0 hPa 0,0 l/m 6,7 km/h (2 Bft) NO 55 3 min 740 W/m 13,4 C 25,1 C 16,1 km/h (3 Bft)
12.05.2016 15:09 25,2 C 48 % 1004,1 hPa 0,0 l/m 6,7 km/h (2 Bft) O-NO 71 3 min 729 W/m 13,4 C 25,1 C 19,3 km/h (3 Bft)
12.05.2016 15:12 25,3 C 46 % 1004,1 hPa 0,0 l/m 8,5 km/h (2 Bft) N 5 3 min 733 W/m 12,8 C 24,8 C 20,9 km/h (4 Bft)
12.05.2016 15:15 25,4 C 46 % 1004,0 hPa 0,0 l/m 6,1 km/h (2 Bft) NW 325 3 min 735 W/m 12,9 C 25,4 C 14,5 km/h (3 Bft)
12.05.2016 15:18 25,5 C 46 % 1004,0 hPa 0,0 l/m 6,9 km/h (2 Bft) N-NO 16 3 min 628 W/m 13,0 C 25,4 C 17,7 km/h (3 Bft)
12.05.2016 15:21 25,5 C 48 % 1004,0 hPa 0,0 l/m 7,0 km/h (2 Bft) W 275 3 min 584 W/m 13,7 C 25,4 C 17,7 km/h (3 Bft)
12.05.2016 15:24 25,6 C 48 % 1004,0 hPa 0,0 l/m 8,5 km/h (2 Bft) W 279 3 min 687 W/m 13,8 C 25,1 C 16,1 km/h (3 Bft)
12.05.2016 15:27 25,2 C 48 % 1004,0 hPa 0,0 l/m 7,6 km/h (2 Bft) NO 35 3 min 698 W/m 13,4 C 24,9 C 14,5 km/h (3 Bft)
12.05.2016 15:30 24,9 C 51 % 1004,0 hPa 0,0 l/m 5,0 km/h (1 Bft) N-NO 32 3 min 707 W/m 14,1 C 24,9 C 16,1 km/h (3 Bft)
12.05.2016 15:33 25,4 C 50 % 1003,9 hPa 0,0 l/m 7,3 km/h (2 Bft) N-NO 24 3 min 677 W/m 14,2 C 25,2 C 22,5 km/h (4 Bft)
12.05.2016 15:36 25,6 C 48 % 1004,0 hPa 0,0 l/m 5,3 km/h (1 Bft) O-NO 76 3 min 654 W/m 13,8 C 25,6 C 12,9 km/h (3 Bft)
12.05.2016 15:39 25,1 C 47 % 1003,9 hPa 0,0 l/m 7,2 km/h (2 Bft) N-NO 28 3 min 673 W/m 13,0 C 24,9 C 17,7 km/h (3 Bft)
12.05.2016 15:42 24,9 C 48 % 1003,8 hPa 0,0 l/m 6,8 km/h (2 Bft) N 355 3 min 619 W/m 13,1 C 24,8 C 16,1 km/h (3 Bft)
12.05.2016 15:45 24,8 C 45 % 1003,9 hPa 0,0 l/m 5,0 km/h (1 Bft) N-NO 27 3 min 679 W/m 12,0 C 24,8 C 14,5 km/h (3 Bft)
12.05.2016 15:48 25,0 C 44 % 1003,8 hPa 0,0 l/m 7,0 km/h (2 Bft) O-SO 109 3 min 691 W/m 11,9 C 24,8 C 19,3 km/h (3 Bft)
12.05.2016 15:51 25,3 C 43 % 1003,8 hPa 0,0 l/m 5,3 km/h (1 Bft) N 360 3 min 693 W/m 11,8 C 25,3 C 16,1 km/h (3 Bft)
12.05.2016 15:54 25,0 C 43 % 1003,9 hPa 0,0 l/m 7,9 km/h (2 Bft) NO 55 3 min 687 W/m 11,5 C 24,6 C 16,1 km/h (3 Bft)
12.05.2016 15:57 25,3 C 43 % 1003,9 hPa 0,0 l/m 7,0 km/h (2 Bft) N-NW 346 3 min 677 W/m 11,8 C 25,2 C 14,5 km/h (3 Bft)
12.05.2016 16:00 25,2 C 43 % 1003,9 hPa 0,0 l/m 9,2 km/h (2 Bft) N 5 3 min 677 W/m 11,7 C 24,5 C 17,7 km/h (3 Bft)
12.05.2016 16:03 25,1 C 44 % 1003,8 hPa 0,0 l/m 6,2 km/h (2 Bft) O-NO 60 3 min 670 W/m 12,0 C 25,1 C 12,9 km/h (3 Bft)
12.05.2016 16:06 25,4 C 42 % 1003,8 hPa 0,0 l/m 5,7 km/h (2 Bft) O 92 3 min 666 W/m 11,5 C 25,4 C 16,1 km/h (3 Bft)
12.05.2016 16:09 25,3 C 43 % 1003,8 hPa 0,0 l/m 6,9 km/h (2 Bft) N-NO 15 3 min 628 W/m 11,8 C 25,2 C 24,1 km/h (4 Bft)
12.05.2016 16:12 25,4 C 41 % 1003,8 hPa 0,0 l/m 5,6 km/h (2 Bft) N-NW 327 3 min 615 W/m 11,2 C 25,4 C 14,5 km/h (3 Bft)
12.05.2016 16:15 25,1 C 42 % 1003,8 hPa 0,0 l/m 6,3 km/h (2 Bft) N-NO 31 3 min 636 W/m 11,3 C 25,1 C 16,1 km/h (3 Bft)
12.05.2016 16:18 24,7 C 44 % 1003,8 hPa 0,0 l/m 6,1 km/h (2 Bft) N-NO 22 3 min 629 W/m 11,6 C 24,7 C 17,7 km/h (3 Bft)
12.05.2016 16:21 24,6 C 43 % 1003,8 hPa 0,0 l/m 5,8 km/h (2 Bft) NO 34 3 min 652 W/m 11,2 C 24,6 C 14,5 km/h (3 Bft)
12.05.2016 16:24 24,6 C 45 % 1003,8 hPa 0,0 l/m 6,7 km/h (2 Bft) NO 39 3 min 624 W/m 11,9 C 24,5 C 17,7 km/h (3 Bft)
12.05.2016 16:27 24,8 C 44 % 1003,8 hPa 0,0 l/m 7,4 km/h (2 Bft) N 11 3 min 628 W/m 11,7 C 24,5 C 17,7 km/h (3 Bft)
12.05.2016 16:30 24,7 C 44 % 1003,7 hPa 0,0 l/m 6,6 km/h (2 Bft) N-NO 30 3 min 617 W/m 11,6 C 24,7 C 12,9 km/h (3 Bft)
12.05.2016 16:33 24,6 C 45 % 1003,7 hPa 0,0 l/m 4,7 km/h (1 Bft) N-NW 336 3 min 624 W/m 11,9 C 24,6 C 11,3 km/h (2 Bft)
12.05.2016 16:36 24,6 C 44 % 1003,7 hPa 0,0 l/m 6,4 km/h (2 Bft) O-NO 68 3 min 617 W/m 11,5 C 24,6 C 20,9 km/h (4 Bft)
12.05.2016 16:39 24,5 C 44 % 1003,7 hPa 0,0 l/m 7,1 km/h (2 Bft) N-NW 334 3 min 608 W/m 11,4 C 24,3 C 16,1 km/h (3 Bft)
12.05.2016 16:42 24,7 C 44 % 1003,6 hPa 0,0 l/m 5,4 km/h (2 Bft) O-NO 58 3 min 601 W/m 11,6 C 24,7 C 12,9 km/h (3 Bft)
12.05.2016 16:45 24,5 C 41 % 1003,6 hPa 0,0 l/m 7,5 km/h (2 Bft) N-NO 24 3 min 591 W/m 10,4 C 24,2 C 19,3 km/h (3 Bft)
12.05.2016 16:48 25,0 C 40 % 1003,7 hPa 0,0 l/m 7,7 km/h (2 Bft) N-NO 31 3 min 585 W/m 10,4 C 24,7 C 19,3 km/h (3 Bft)
12.05.2016 16:51 24,6 C 43 % 1003,6 hPa 0,0 l/m 7,2 km/h (2 Bft) O-NO 74 3 min 580 W/m 11,2 C 24,4 C 16,1 km/h (3 Bft)
12.05.2016 16:54 24,4 C 45 % 1003,6 hPa 0,0 l/m 6,3 km/h (2 Bft) O-NO 58 3 min 575 W/m 11,7 C 24,4 C 17,7 km/h (3 Bft)
12.05.2016 16:57 24,5 C 43 % 1003,5 hPa 0,0 l/m 9,0 km/h (2 Bft) O 80 3 min 548 W/m 11,1 C 23,8 C 22,5 km/h (4 Bft)
12.05.2016 17:00 24,3 C 42 % 1003,5 hPa 0,0 l/m 6,8 km/h (2 Bft) NO 48 3 min 527 W/m 10,6 C 24,2 C 27,4 km/h (5 Bft)
12.05.2016 17:03 24,2 C 42 % 1003,5 hPa 0,0 l/m 8,5 km/h (2 Bft) O 80 3 min 543 W/m 10,5 C 23,6 C 14,5 km/h (3 Bft)
12.05.2016 17:06 23,9 C 45 % 1003,5 hPa 0,0 l/m 8,4 km/h (2 Bft) N 355 3 min 548 W/m 11,2 C 23,3 C 16,1 km/h (3 Bft)
12.05.2016 17:09 24,1 C 46 % 1003,5 hPa 0,0 l/m 4,0 km/h (1 Bft) N-NO 24 3 min 540 W/m 11,7 C 24,1 C 9,7 km/h (2 Bft)
12.05.2016 17:12 24,2 C 46 % 1003,4 hPa 0,0 l/m 7,0 km/h (2 Bft) NO 44 3 min 533 W/m 11,8 C 24,0 C 19,3 km/h (3 Bft)
12.05.2016 17:15 24,4 C 46 % 1003,5 hPa 0,0 l/m 5,8 km/h (2 Bft) W-NW 302 3 min 527 W/m 12,0 C 24,4 C 11,3 km/h (2 Bft)
12.05.2016 17:18 24,3 C 46 % 1003,4 hPa 0,0 l/m 5,6 km/h (2 Bft) N-NO 32 3 min 520 W/m 11,9 C 24,3 C 14,5 km/h (3 Bft)
12.05.2016 17:21 24,0 C 45 % 1003,4 hPa 0,0 l/m 7,8 km/h (2 Bft) NO 53 3 min 513 W/m 11,3 C 23,6 C 17,7 km/h (3 Bft)
12.05.2016 17:24 23,4 C 46 % 1003,4 hPa 0,0 l/m 5,9 km/h (2 Bft) W-NW 297 3 min 508 W/m 11,1 C 23,4 C 14,5 km/h (3 Bft)
12.05.2016 17:27 23,4 C 48 % 1003,3 hPa 0,0 l/m 5,2 km/h (1 Bft) N 355 3 min 499 W/m 11,8 C 23,4 C 16,1 km/h (3 Bft)
12.05.2016 17:30 23,5 C 47 % 1003,3 hPa 0,0 l/m 7,7 km/h (2 Bft) SW 233 3 min 496 W/m 11,5 C 23,1 C 17,7 km/h (3 Bft)
12.05.2016 17:33 23,4 C 47 % 1003,2 hPa 0,0 l/m 5,1 km/h (1 Bft) N 349 3 min 485 W/m 11,4 C 23,4 C 16,1 km/h (3 Bft)
12.05.2016 17:36 23,3 C 47 % 1003,3 hPa 0,0 l/m 9,7 km/h (2 Bft) NO 40 3 min 478 W/m 11,3 C 22,4 C 19,3 km/h (3 Bft)
12.05.2016 17:39 23,0 C 47 % 1003,2 hPa 0,0 l/m 9,2 km/h (2 Bft) NO 44 3 min 469 W/m 11,1 C 22,2 C 22,5 km/h (4 Bft)
12.05.2016 17:42 23,1 C 49 % 1003,2 hPa 0,0 l/m 4,3 km/h (1 Bft) NO 36 3 min 462 W/m 11,8 C 23,1 C 11,3 km/h (2 Bft)
12.05.2016 17:45 23,1 C 48 % 1003,2 hPa 0,0 l/m 5,1 km/h (1 Bft) O 88 3 min 454 W/m 11,5 C 23,1 C 22,5 km/h (4 Bft)
12.05.2016 17:48 23,2 C 48 % 1003,2 hPa 0,0 l/m 5,9 km/h (2 Bft) W 277 3 min 446 W/m 11,6 C 23,2 C 17,7 km/h (3 Bft)
12.05.2016 17:51 23,3 C 48 % 1003,2 hPa 0,0 l/m 4,2 km/h (1 Bft) N 10 3 min 441 W/m 11,7 C 23,3 C 8,0 km/h (2 Bft)
12.05.2016 17:54 23,4 C 47 % 1003,1 hPa 0,0 l/m 8,6 km/h (2 Bft) O-SO 117 3 min 432 W/m 11,4 C 22,8 C 19,3 km/h (3 Bft)
12.05.2016 17:57 23,2 C 48 % 1003,1 hPa 0,0 l/m 8,1 km/h (2 Bft) N-NW 337 3 min 425 W/m 11,6 C 22,7 C 19,3 km/h (3 Bft)
12.05.2016 18:00 23,1 C 50 % 1003,1 hPa 0,0 l/m 6,9 km/h (2 Bft) NO 37 3 min 417 W/m 12,1 C 22,9 C 16,1 km/h (3 Bft)
12.05.2016 18:03 22,7 C 51 % 1003,1 hPa 0,0 l/m 8,2 km/h (2 Bft) N-NO 18 3 min 410 W/m 12,0 C 22,1 C 14,5 km/h (3 Bft)
12.05.2016 18:06 22,8 C 52 % 1003,1 hPa 0,0 l/m 5,1 km/h (1 Bft) NO 55 3 min 403 W/m 12,4 C 22,8 C 19,3 km/h (3 Bft)
12.05.2016 18:09 22,6 C 51 % 1003,1 hPa 0,0 l/m 8,5 km/h (2 Bft) N-NW 344 3 min 396 W/m 11,9 C 21,9 C 20,9 km/h (4 Bft)
12.05.2016 18:12 22,3 C 53 % 1003,1 hPa 0,0 l/m 6,3 km/h (2 Bft) W 264 3 min 387 W/m 12,2 C 22,3 C 16,1 km/h (3 Bft)
12.05.2016 18:15 22,3 C 52 % 1003,0 hPa 0,0 l/m 6,2 km/h (2 Bft) N-NO 13 3 min 381 W/m 12,0 C 22,3 C 16,1 km/h (3 Bft)
12.05.2016 18:18 22,2 C 51 % 1003,0 hPa 0,0 l/m 7,6 km/h (2 Bft) O-NO 72 3 min 374 W/m 11,6 C 21,8 C 16,1 km/h (3 Bft)
12.05.2016 18:21 21,9 C 52 % 1003,0 hPa 0,0 l/m 8,3 km/h (2 Bft) NO 46 3 min 367 W/m 11,6 C 21,2 C 20,9 km/h (4 Bft)
12.05.2016 18:24 21,6 C 53 % 1003,0 hPa 0,0 l/m 10,2 km/h (2 Bft) NW 326 3 min 359 W/m 11,6 C 20,4 C 22,5 km/h (4 Bft)
12.05.2016 18:27 21,6 C 54 % 1003,0 hPa 0,0 l/m 7,3 km/h (2 Bft) SO 128 3 min 353 W/m 11,9 C 21,3 C 14,5 km/h (3 Bft)
12.05.2016 18:30 21,3 C 55 % 1002,9 hPa 0,0 l/m 6,0 km/h (2 Bft) N-NW 348 3 min 345 W/m 11,9 C 21,3 C 17,7 km/h (3 Bft)
12.05.2016 18:33 21,4 C 54 % 1002,9 hPa 0,0 l/m 5,1 km/h (1 Bft) NO 54 3 min 338 W/m 11,7 C 21,4 C 12,9 km/h (3 Bft)
12.05.2016 18:36 21,3 C 54 % 1003,0 hPa 0,0 l/m 6,5 km/h (2 Bft) O-NO 61 3 min 329 W/m 11,6 C 21,3 C 19,3 km/h (3 Bft)
12.05.2016 18:39 21,4 C 53 % 1002,9 hPa 0,0 l/m 6,7 km/h (2 Bft) N-NO 29 3 min 323 W/m 11,4 C 21,3 C 17,7 km/h (3 Bft)
12.05.2016 18:42 21,2 C 53 % 1003,0 hPa 0,0 l/m 7,9 km/h (2 Bft) N-NW 343 3 min 315 W/m 11,2 C 20,6 C 17,7 km/h (3 Bft)
12.05.2016 18:45 21,2 C 54 % 1002,9 hPa 0,0 l/m 7,2 km/h (2 Bft) O-NO 64 3 min 308 W/m 11,5 C 20,9 C 19,3 km/h (3 Bft)
12.05.2016 18:48 21,2 C 53 % 1003,0 hPa 0,0 l/m 8,0 km/h (2 Bft) N-NO 26 3 min 299 W/m 11,2 C 20,6 C 22,5 km/h (4 Bft)
12.05.2016 18:51 21,2 C 53 % 1003,0 hPa 0,0 l/m 7,4 km/h (2 Bft) O-NO 76 3 min 292 W/m 11,2 C 20,8 C 17,7 km/h (3 Bft)
12.05.2016 18:54 21,1 C 53 % 1003,0 hPa 0,0 l/m 7,0 km/h (2 Bft) S 175 3 min 283 W/m 11,1 C 20,9 C 14,5 km/h (3 Bft)
12.05.2016 18:57 20,8 C 54 % 1003,0 hPa 0,0 l/m 7,6 km/h (2 Bft) W-NW 286 3 min 274 W/m 11,1 C 20,3 C 19,3 km/h (3 Bft)
12.05.2016 19:00 20,8 C 54 % 1003,1 hPa 0,0 l/m 7,9 km/h (2 Bft) NW 324 3 min 265 W/m 11,1 C 20,2 C 24,1 km/h (4 Bft)
12.05.2016 19:03 20,7 C 56 % 1003,0 hPa 0,0 l/m 8,1 km/h (2 Bft) N-NW 332 3 min 260 W/m 11,6 C 20,0 C 19,3 km/h (3 Bft)
12.05.2016 19:06 20,5 C 55 % 1003,0 hPa 0,0 l/m 6,5 km/h (2 Bft) W-NW 284 3 min 251 W/m 11,1 C 20,5 C 12,9 km/h (3 Bft)
12.05.2016 19:09 20,6 C 54 % 1003,0 hPa 0,0 l/m 5,5 km/h (2 Bft) NO 49 3 min 244 W/m 11,0 C 20,6 C 14,5 km/h (3 Bft)
12.05.2016 19:12 20,4 C 54 % 1003,1 hPa 0,0 l/m 7,0 km/h (2 Bft) NW 315 3 min 236 W/m 10,8 C 20,2 C 16,1 km/h (3 Bft)
12.05.2016 19:15 20,2 C 56 % 1003,0 hPa 0,0 l/m 8,6 km/h (2 Bft) N-NO 26 3 min 229 W/m 11,1 C 19,3 C 17,7 km/h (3 Bft)
12.05.2016 19:18 19,9 C 56 % 1003,0 hPa 0,0 l/m 7,6 km/h (2 Bft) O-SO 107 3 min 218 W/m 10,9 C 19,4 C 12,9 km/h (3 Bft)
12.05.2016 19:21 20,1 C 56 % 1003,1 hPa 0,0 l/m 8,3 km/h (2 Bft) NO 52 3 min 207 W/m 11,0 C 19,3 C 20,9 km/h (4 Bft)
12.05.2016 19:24 19,8 C 58 % 1003,1 hPa 0,0 l/m 5,7 km/h (2 Bft) N-NO 19 3 min 199 W/m 11,3 C 19,8 C 16,1 km/h (3 Bft)
12.05.2016 19:27 19,7 C 58 % 1003,1 hPa 0,0 l/m 6,7 km/h (2 Bft) O 91 3 min 188 W/m 11,2 C 19,6 C 14,5 km/h (3 Bft)
12.05.2016 19:30 19,7 C 58 % 1003,1 hPa 0,0 l/m 5,5 km/h (2 Bft) N 5 3 min 183 W/m 11,2 C 19,7 C 9,7 km/h (2 Bft)
12.05.2016 19:33 19,5 C 58 % 1003,0 hPa 0,0 l/m 6,6 km/h (2 Bft) O 100 3 min 176 W/m 11,0 C 19,4 C 20,9 km/h (4 Bft)
12.05.2016 19:36 19,4 C 58 % 1003,0 hPa 0,0 l/m 6,8 km/h (2 Bft) N-NO 22 3 min 167 W/m 10,9 C 19,2 C 14,5 km/h (3 Bft)
12.05.2016 19:39 19,2 C 58 % 1003,0 hPa 0,0 l/m 7,0 km/h (2 Bft) N 5 3 min 158 W/m 10,7 C 18,9 C 17,7 km/h (3 Bft)
12.05.2016 19:42 19,0 C 59 % 1003,0 hPa 0,0 l/m 6,8 km/h (2 Bft) N 5 3 min 149 W/m 10,8 C 18,8 C 25,7 km/h (4 Bft)
12.05.2016 19:45 18,9 C 60 % 1003,0 hPa 0,0 l/m 4,3 km/h (1 Bft) N 9 3 min 139 W/m 11,0 C 18,9 C 12,9 km/h (3 Bft)
12.05.2016 19:48 18,7 C 61 % 1003,1 hPa 0,0 l/m 6,1 km/h (2 Bft) N-NO 12 3 min 132 W/m 11,0 C 18,7 C 16,1 km/h (3 Bft)
12.05.2016 19:51 18,7 C 62 % 1003,2 hPa 0,0 l/m 5,4 km/h (2 Bft) NO 45 3 min 123 W/m 11,3 C 18,7 C 14,5 km/h (3 Bft)
12.05.2016 19:54 18,7 C 61 % 1003,1 hPa 0,0 l/m 7,6 km/h (2 Bft) NO 41 3 min 116 W/m 11,0 C 18,2 C 14,5 km/h (3 Bft)
12.05.2016 19:57 18,7 C 62 % 1003,1 hPa 0,0 l/m 7,9 km/h (2 Bft) N 5 3 min 105 W/m 11,3 C 18,0 C 20,9 km/h (4 Bft)
12.05.2016 20:00 18,6 C 62 % 1003,2 hPa 0,0 l/m 6,6 km/h (2 Bft) O 82 3 min 102 W/m 11,2 C 18,5 C 14,5 km/h (3 Bft)
12.05.2016 20:03 18,4 C 62 % 1003,1 hPa 0,0 l/m 7,3 km/h (2 Bft) N-NW 343 0 min 90 W/m 11,0 C 18,0 C 16,1 km/h (3 Bft)
12.05.2016 20:06 18,3 C 61 % 1003,1 hPa 0,0 l/m 5,4 km/h (2 Bft) NO 46 0 min 88 W/m 10,6 C 18,3 C 12,9 km/h (3 Bft)
12.05.2016 20:09 18,2 C 60 % 1003,1 hPa 0,0 l/m 8,7 km/h (2 Bft) SO 141 0 min 79 W/m 10,3 C 17,2 C 14,5 km/h (3 Bft)
12.05.2016 20:12 18,1 C 59 % 1003,1 hPa 0,0 l/m 6,8 km/h (2 Bft) N-NO 31 0 min 74 W/m 10,0 C 17,9 C 16,1 km/h (3 Bft)
12.05.2016 20:15 17,8 C 59 % 1003,1 hPa 0,0 l/m 9,4 km/h (2 Bft) N-NW 338 0 min 67 W/m 9,7 C 16,4 C 20,9 km/h (4 Bft)
12.05.2016 20:18 17,8 C 57 % 1003,1 hPa 0,0 l/m 4,9 km/h (1 Bft) O-NO 61 0 min 62 W/m 9,2 C 17,8 C 14,5 km/h (3 Bft)
12.05.2016 20:21 17,7 C 57 % 1003,1 hPa 0,0 l/m 6,1 km/h (2 Bft) N 11 0 min 54 W/m 9,1 C 17,7 C 12,9 km/h (3 Bft)
12.05.2016 20:24 17,6 C 57 % 1003,1 hPa 0,0 l/m 7,1 km/h (2 Bft) N-NO 15 0 min 51 W/m 9,0 C 17,3 C 16,1 km/h (3 Bft)
12.05.2016 20:27 17,5 C 56 % 1003,2 hPa 0,0 l/m 4,7 km/h (1 Bft) N-NO 32 0 min 44 W/m 8,6 C 17,5 C 11,3 km/h (2 Bft)
12.05.2016 20:30 17,4 C 54 % 1003,1 hPa 0,0 l/m 5,7 km/h (2 Bft) O-NO 65 0 min 35 W/m 8,0 C 17,4 C 12,9 km/h (3 Bft)
12.05.2016 20:33 17,3 C 54 % 1003,1 hPa 0,0 l/m 4,6 km/h (1 Bft) N-NO 22 0 min 16 W/m 7,9 C 17,3 C 14,5 km/h (3 Bft)
12.05.2016 20:36 17,4 C 50 % 1003,2 hPa 0,0 l/m 6,1 km/h (2 Bft) N-NW 334 0 min 18 W/m 6,9 C 17,4 C 17,7 km/h (3 Bft)
12.05.2016 20:39 17,2 C 49 % 1003,2 hPa 0,0 l/m 6,5 km/h (2 Bft) N-NO 32 0 min 14 W/m 6,4 C 17,2 C 14,5 km/h (3 Bft)
12.05.2016 20:42 17,1 C 50 % 1003,3 hPa 0,0 l/m 4,1 km/h (1 Bft) NO 38 0 min 12 W/m 6,6 C 17,1 C 11,3 km/h (2 Bft)
12.05.2016 20:45 16,8 C 51 % 1003,3 hPa 0,0 l/m 5,6 km/h (2 Bft) O 84 0 min 11 W/m 6,6 C 16,8 C 17,7 km/h (3 Bft)
12.05.2016 20:48 16,7 C 48 % 1003,3 hPa 0,0 l/m 6,9 km/h (2 Bft) N 9 0 min 9 W/m 5,6 C 16,4 C 16,1 km/h (3 Bft)
12.05.2016 20:51 16,6 C 47 % 1003,4 hPa 0,0 l/m 6,8 km/h (2 Bft) N-NW 337 0 min 9 W/m 5,2 C 16,4 C 17,7 km/h (3 Bft)
12.05.2016 20:54 16,4 C 47 % 1003,4 hPa 0,0 l/m 6,3 km/h (2 Bft) N-NW 336 0 min 7 W/m 5,1 C 16,4 C 19,3 km/h (3 Bft)
12.05.2016 20:57 16,4 C 48 % 1003,4 hPa 0,0 l/m 4,8 km/h (1 Bft) NO 43 0 min 7 W/m 5,4 C 16,4 C 16,1 km/h (3 Bft)
12.05.2016 21:00 16,3 C 47 % 1003,4 hPa 0,0 l/m 4,9 km/h (1 Bft) O-NO 71 0 min 7 W/m 5,0 C 16,3 C 12,9 km/h (3 Bft)
12.05.2016 21:03 16,2 C 46 % 1003,4 hPa 0,0 l/m 6,1 km/h (2 Bft) O-SO 102 0 min 5 W/m 4,6 C 16,2 C 17,7 km/h (3 Bft)
12.05.2016 21:06 16,2 C 47 % 1003,4 hPa 0,0 l/m 6,0 km/h (2 Bft) N-NO 28 0 min 5 W/m 4,9 C 16,2 C 19,3 km/h (3 Bft)
12.05.2016 21:09 16,0 C 48 % 1003,5 hPa 0,0 l/m 4,3 km/h (1 Bft) N-NO 18 0 min 5 W/m 5,0 C 16,0 C 12,9 km/h (3 Bft)
12.05.2016 21:12 15,9 C 46 % 1003,5 hPa 0,0 l/m 3,8 km/h (1 Bft) N 360 0 min 0 W/m 4,3 C 15,9 C 9,7 km/h (2 Bft)
12.05.2016 21:15 16,0 C 47 % 1003,5 hPa 0,0 l/m 5,0 km/h (1 Bft) NO 51 0 min 0 W/m 4,7 C 16,0 C 16,1 km/h (3 Bft)
12.05.2016 21:18 15,8 C 48 % 1003,6 hPa 0,0 l/m 4,0 km/h (1 Bft) NO 34 0 min 0 W/m 4,8 C 15,8 C 11,3 km/h (2 Bft)
12.05.2016 21:21 15,7 C 49 % 1003,6 hPa 0,0 l/m 7,0 km/h (2 Bft) NO 40 0 min 0 W/m 5,0 C 15,4 C 17,7 km/h (3 Bft)
12.05.2016 21:24 15,4 C 50 % 1003,7 hPa 0,0 l/m 3,3 km/h (1 Bft) N 349 0 min 0 W/m 5,0 C 15,4 C 16,1 km/h (3 Bft)
12.05.2016 21:27 15,3 C 49 % 1003,7 hPa 0,0 l/m 3,0 km/h (1 Bft) O-SO 112 0 min 0 W/m 4,7 C 15,3 C 12,9 km/h (3 Bft)
12.05.2016 21:30 15,3 C 47 % 1003,8 hPa 0,0 l/m 5,3 km/h (1 Bft) N 10 0 min 0 W/m 4,1 C 15,3 C 11,3 km/h (2 Bft)
12.05.2016 21:33 15,3 C 49 % 1003,8 hPa 0,0 l/m 3,6 km/h (1 Bft) N-NO 30 0 min 0 W/m 4,7 C 15,3 C 12,9 km/h (3 Bft)
12.05.2016 21:36 15,2 C 49 % 1003,8 hPa 0,0 l/m 5,0 km/h (1 Bft) O-NO 63 0 min 0 W/m 4,6 C 15,2 C 12,9 km/h (3 Bft)
12.05.2016 21:39 15,2 C 47 % 1003,9 hPa 0,0 l/m 6,0 km/h (2 Bft) N-NO 23 0 min 0 W/m 4,0 C 15,2 C 16,1 km/h (3 Bft)
12.05.2016 21:42 15,1 C 48 % 1003,9 hPa 0,0 l/m 5,2 km/h (1 Bft) NO 38 0 min 0 W/m 4,2 C 15,1 C 12,9 km/h (3 Bft)
12.05.2016 21:45 14,9 C 50 % 1003,9 hPa 0,0 l/m 1,8 km/h (1 Bft) W-NW 297 0 min 0 W/m 4,6 C 14,9 C 4,8 km/h (1 Bft)
12.05.2016 21:48 14,8 C 48 % 1003,9 hPa 0,0 l/m 3,6 km/h (1 Bft) NO 47 0 min 0 W/m 3,9 C 14,8 C 8,0 km/h (2 Bft)
12.05.2016 21:51 14,8 C 47 % 1004,0 hPa 0,0 l/m 5,9 km/h (2 Bft) NO 34 0 min 0 W/m 3,6 C 14,8 C 19,3 km/h (3 Bft)
12.05.2016 21:54 14,8 C 48 % 1004,0 hPa 0,0 l/m 2,4 km/h (1 Bft) NO 39 0 min 0 W/m 3,9 C 14,8 C 4,8 km/h (1 Bft)
12.05.2016 21:57 14,8 C 47 % 1004,0 hPa 0,0 l/m 4,5 km/h (1 Bft) O-NO 59 0 min 0 W/m 3,6 C 14,8 C 11,3 km/h (2 Bft)
12.05.2016 22:00 14,7 C 49 % 1004,0 hPa 0,0 l/m 3,9 km/h (1 Bft) NO 40 0 min 0 W/m 4,1 C 14,7 C 12,9 km/h (3 Bft)
12.05.2016 22:03 14,6 C 49 % 1004,1 hPa 0,0 l/m 2,7 km/h (1 Bft) O 88 0 min 0 W/m 4,0 C 14,6 C 6,4 km/h (2 Bft)
12.05.2016 22:06 14,4 C 49 % 1004,1 hPa 0,0 l/m 4,4 km/h (1 Bft) N 5 0 min 0 W/m 3,8 C 14,4 C 17,7 km/h (3 Bft)
12.05.2016 22:09 14,3 C 51 % 1004,2 hPa 0,0 l/m 2,9 km/h (1 Bft) W-NW 296 0 min 0 W/m 4,3 C 14,3 C 14,5 km/h (3 Bft)
12.05.2016 22:12 14,3 C 49 % 1004,2 hPa 0,0 l/m 5,4 km/h (2 Bft) O-NO 63 0 min 0 W/m 3,7 C 14,3 C 8,0 km/h (2 Bft)
12.05.2016 22:15 14,2 C 50 % 1004,2 hPa 0,0 l/m 4,6 km/h (1 Bft) S 187 0 min 0 W/m 3,9 C 14,2 C 9,7 km/h (2 Bft)
12.05.2016 22:18 14,3 C 49 % 1004,2 hPa 0,0 l/m 2,6 km/h (1 Bft) O-NO 78 0 min 0 W/m 3,7 C 14,3 C 9,7 km/h (2 Bft)
12.05.2016 22:21 14,2 C 47 % 1004,2 hPa 0,0 l/m 4,3 km/h (1 Bft) N 5 0 min 0 W/m 3,1 C 14,2 C 12,9 km/h (3 Bft)
12.05.2016 22:24 14,2 C 48 % 1004,3 hPa 0,0 l/m 4,4 km/h (1 Bft) N-NO 32 0 min 0 W/m 3,4 C 14,2 C 9,7 km/h (2 Bft)
12.05.2016 22:27 14,2 C 49 % 1004,3 hPa 0,0 l/m 3,4 km/h (1 Bft) SO 126 0 min 0 W/m 3,6 C 14,2 C 8,0 km/h (2 Bft)
12.05.2016 22:30 14,0 C 50 % 1004,2 hPa 0,0 l/m 2,5 km/h (1 Bft) N 5 0 min 0 W/m 3,7 C 14,0 C 4,8 km/h (1 Bft)
12.05.2016 22:33 13,9 C 52 % 1004,2 hPa 0,0 l/m 3,4 km/h (1 Bft) NO 53 0 min 0 W/m 4,2 C 13,9 C 8,0 km/h (2 Bft)
12.05.2016 22:36 13,8 C 52 % 1004,3 hPa 0,0 l/m 3,4 km/h (1 Bft) N 355 0 min 0 W/m 4,1 C 13,8 C 9,7 km/h (2 Bft)
12.05.2016 22:39 13,8 C 53 % 1004,3 hPa 0,0 l/m 3,4 km/h (1 Bft) N 5 0 min 0 W/m 4,4 C 13,8 C 12,9 km/h (3 Bft)
12.05.2016 22:42 13,7 C 53 % 1004,3 hPa 0,0 l/m 3,3 km/h (1 Bft) O-NO 76 0 min 0 W/m 4,3 C 13,7 C 9,7 km/h (2 Bft)
12.05.2016 22:45 13,7 C 52 % 1004,3 hPa 0,0 l/m 5,2 km/h (1 Bft) N 5 0 min 0 W/m 4,0 C 13,7 C 9,7 km/h (2 Bft)
12.05.2016 22:48 13,6 C 51 % 1004,3 hPa 0,0 l/m 5,0 km/h (1 Bft) O-NO 62 0 min 0 W/m 3,7 C 13,6 C 9,7 km/h (2 Bft)
12.05.2016 22:51 13,6 C 52 % 1004,4 hPa 0,0 l/m 3,4 km/h (1 Bft) N 360 0 min 0 W/m 3,9 C 13,6 C 6,4 km/h (2 Bft)
12.05.2016 22:54 13,5 C 53 % 1004,4 hPa 0,0 l/m 3,5 km/h (1 Bft) N-NO 32 0 min 0 W/m 4,1 C 13,5 C 9,7 km/h (2 Bft)
12.05.2016 22:57 13,4 C 52 % 1004,4 hPa 0,0 l/m 4,1 km/h (1 Bft) N-NW 337 0 min 0 W/m 3,7 C 13,4 C 14,5 km/h (3 Bft)
12.05.2016 23:00 13,4 C 53 % 1004,4 hPa 0,0 l/m 4,5 km/h (1 Bft) N 11 0 min 0 W/m 4,0 C 13,4 C 12,9 km/h (3 Bft)
12.05.2016 23:03 13,3 C 54 % 1004,4 hPa 0,0 l/m 3,9 km/h (1 Bft) N-NW 338 0 min 0 W/m 4,2 C 13,3 C 8,0 km/h (2 Bft)
12.05.2016 23:06 13,2 C 54 % 1004,4 hPa 0,0 l/m 2,7 km/h (1 Bft) O 99 0 min 0 W/m 4,1 C 13,2 C 6,4 km/h (2 Bft)
12.05.2016 23:09 13,2 C 54 % 1004,5 hPa 0,0 l/m 3,4 km/h (1 Bft) O-SO 113 0 min 0 W/m 4,1 C 13,2 C 9,7 km/h (2 Bft)
12.05.2016 23:12 13,2 C 54 % 1004,5 hPa 0,0 l/m 2,0 km/h (1 Bft) W-NW 295 0 min 0 W/m 4,1 C 13,2 C 8,0 km/h (2 Bft)
12.05.2016 23:15 13,1 C 53 % 1004,5 hPa 0,0 l/m 2,9 km/h (1 Bft) NW 319 0 min 0 W/m 3,7 C 13,1 C 8,0 km/h (2 Bft)
12.05.2016 23:18 13,1 C 54 % 1004,4 hPa 0,0 l/m 3,5 km/h (1 Bft) NO 46 0 min 0 W/m 4,0 C 13,1 C 9,7 km/h (2 Bft)
12.05.2016 23:21 12,9 C 53 % 1004,4 hPa 0,0 l/m 4,6 km/h (1 Bft) NO 42 0 min 0 W/m 3,6 C 12,9 C 14,5 km/h (3 Bft)
12.05.2016 23:24 12,9 C 55 % 1004,4 hPa 0,0 l/m 2,0 km/h (1 Bft) N-NW 348 0 min 0 W/m 4,1 C 12,9 C 6,4 km/h (2 Bft)
12.05.2016 23:27 12,8 C 56 % 1004,4 hPa 0,0 l/m 1,8 km/h (1 Bft) N-NO 21 0 min 0 W/m 4,2 C 12,8 C 6,4 km/h (2 Bft)
12.05.2016 23:30 12,7 C 55 % 1004,4 hPa 0,0 l/m 3,3 km/h (1 Bft) NO 49 0 min 0 W/m 3,9 C 12,7 C 9,7 km/h (2 Bft)
12.05.2016 23:33 12,6 C 57 % 1004,4 hPa 0,0 l/m 2,1 km/h (1 Bft) N-NO 31 0 min 0 W/m 4,3 C 12,6 C 8,0 km/h (2 Bft)
12.05.2016 23:36 12,4 C 56 % 1004,5 hPa 0,0 l/m 4,9 km/h (1 Bft) NO 34 0 min 0 W/m 3,9 C 12,4 C 12,9 km/h (3 Bft)
12.05.2016 23:39 12,4 C 56 % 1004,4 hPa 0,0 l/m 5,0 km/h (1 Bft) NO 44 0 min 0 W/m 3,9 C 12,4 C 9,7 km/h (2 Bft)
12.05.2016 23:42 12,4 C 56 % 1004,4 hPa 0,0 l/m 2,2 km/h (1 Bft) NO 38 0 min 0 W/m 3,9 C 12,4 C 4,8 km/h (1 Bft)
12.05.2016 23:45 12,4 C 57 % 1004,5 hPa 0,0 l/m 3,2 km/h (1 Bft) NO 36 0 min 0 W/m 4,1 C 12,4 C 12,9 km/h (3 Bft)
12.05.2016 23:48 12,3 C 54 % 1004,5 hPa 0,0 l/m 5,0 km/h (1 Bft) NO 51 0 min 0 W/m 3,3 C 12,3 C 11,3 km/h (2 Bft)
12.05.2016 23:51 12,4 C 55 % 1004,5 hPa 0,0 l/m 2,8 km/h (1 Bft) N 360 0 min 0 W/m 3,6 C 12,4 C 6,4 km/h (2 Bft)
12.05.2016 23:54 12,4 C 55 % 1004,4 hPa 0,0 l/m 3,5 km/h (1 Bft) NO 40 0 min 0 W/m 3,6 C 12,4 C 9,7 km/h (2 Bft)
12.05.2016 23:57 12,4 C 56 % 1004,5 hPa 0,0 l/m 2,0 km/h (1 Bft) S 175 0 min 0 W/m 3,9 C 12,4 C 3,2 km/h (1 Bft)
_ Min-Zeit 06:09 16:48 18:30 - 07:06 - - - - 22:21 07:54 23:57
Minimum _ 12,1 C 40 % 1002,9 hPa - 1,8 km/h (1 Bft) - - - - 3,1 C 11,5 C 3,2 km/h (1 Bft)
_ Max-Zeit 15:27 05:45 01:09 00:00 14:51 - - 10:33 13:39 13:00 15:36 14:00
Maximum _ 25,7 C 87 % 1007,6 hPa 0,0 l/m 10,8 km/h
N-NO (2 Bft)
- - 3 min 803 W/m 14,4 C 25,6 C 29,0 km/h
O-NO (5 Bft)
Durchschnitt _ 17,5 C 65 % 1005,2 hPa #0,0 l/m 5,9 km/h (2 Bft) NO - #9:30 h 342 W/m 10,4 C 17,3 C 15,0 km/h (3 Bft)
2016 Cux-Wetter.de -Die Nutzung der Wetterdaten nur mit ausdrcklicher Genehmigung